Sponsored Ads

Barry Bonds

1986 Fleer Update

Barry Lamar Bonds (July 24, 1964-) is the only member of the 500-500 clubs, having hits 500 or more home runs and stolen 500 or more bases during his career. Barry was one of the most loved and hated players in baseball history, but is arguably one of the greatest to ever play the game, holding numerous offensive records. The San Francisco Giants originally drafted Bonds in the second round of the 1982 MLB Draft, but they were unable to reach and agreement, so after choosing to attend college, the Pittsburgh Pirates selected Barry with the sixth overall pick of the 1985 MLB June Amateur Draft out of Arizona State University. He was a Sporting News All-American with the Sun Devils in 1985 and he set an NCAA record, as a sophomore, when he collected seven consecutive hits in the College World Series. In Pittsburgh, Barry played left field next to centerfielder Andy Van Slyke and right fielder Bobby Bonilla making the trio one of the best defensive outfields in the National League that was equally dangerous at the plate. In 1990, his fifth season in the Major Leagues, Bonds earned his first of seven National League Most Valuable Player Awards (1990, 1992, 1993, 2001-2004).

Barry led the NL once in RBI and runs scored, twice in home runs including his record-setting 73 HR season in 2001, seven times in slugging percentage, ten times in on-base percentage and 12 times in walks. Barry played 22 seasons in the Majors with the Pirates (1986-1992) and the San Francisco Giants (1993-2007) and was a 14-time All-Star, eight-time NL Gold Glove winner, won 12 Silver Sluggers and three Hank Aaron Awards. He holds the all-time records for most MVP awards (7), most walks (2,558) and home runs (762). He scored 100 or more runs and drove in 100 or more RBI twelve times, amassed 120 or more hits 17 times and hit 25 or more HRs in 18 or his 22 seasons. Barry Bonds finished his career with 2,935 hits including 601 doubles and 762 home runs, 2,227 runs scored, 2,558 walks, 514 stolen bases and 1,996 RBI. He also posted a .984 fielding percentage with 5,637 putouts, 173 assists, 25 double plays and 97 errors in 5,907 chances. He helped lead the Pirates to three National League Championship Series, led San Francisco to the 2002 NLCS and World Series, falling to the Los Angeles of Anaheim in seven games. 

Condition Census

Pos Grade Thumbnail Pedigree and History
1 GEM MT 10 (1313)

Prices By Grade

1986 FLEER UPDATE U-14 BARRY BONDS

Grade Most Recent Price Average Price SMR Price Population POP Higher
GEM - MT 10 $430.00 $291.38 $275.00 1313
MINT 9 $28.89 $41.95 $30.00 9210 1313
NM - MT 8 $22.50 $15.39 $10.00 8834 10774
NM 7 $6.50 $18.25 539 19709
EX - MT 6 81 20253
EX 5 $9.99 $7.24 38 20334
VG - EX 4 12 20372
VG 3 1 20384
GOOD 2 1 20385
FR 1.5 20386
PR 1 1 20386
Auth $9.10 14 20387

Auction Prices Realized

Date Price Grade Lot # Auction House Auction/Seller Type Cert
01/16/2021 $29 9 184613348798 eBay lanieekat Auction 81192315
01/15/2021 $35 9 363249878304 eBay probstein123 Auction 47955221
01/14/2021 $430 10 143907376271 eBay pwcc_auctions Auction 07076051
01/12/2021 $23 8 363242667779 eBay milo-8588 Auction 47519728
01/11/2021 $19 8 174582251719 eBay camlogan33 Auction 03122221
01/11/2021 $52 9 174582250261 eBay camlogan33 Auction 90529248
01/08/2021 $41 9 164619520562 eBay scott0085907 Auction 07114878
01/08/2021 $20 8 383883194293 eBay probstein123 Auction 47146763
01/07/2021 $15 8 203236607659 eBay sal_turtle Auction 41695222
01/05/2021 $50 9 203229502834 eBay artbarbuyer Best Offer 41181750
01/05/2021 $43 9 373281084393 eBay bobssportscollections Best Offer 81836988
01/05/2021 $1,000 8 224143895150 eBay pwcc_vault Best Offer 43023358
01/04/2021 $30 8 174582224472 eBay slrmb Auction 44235808
01/04/2021 $44 9 353215239526 eBay aamchenry Best Offer 03065218
01/03/2021 $50 10 164615474208 eBay pooppoo9 Auction 07072872
01/03/2021 $30 9 284134626084 eBay therev3 Auction 03605982
01/02/2021 $50 9 313361903146 eBay vintagerookies Auction 24928431
01/01/2021 $15 8 154102458099 eBay jayeaton Best Offer 08180113
12/31/2020 $36 9 154263801934 eBay conwayn Auction 20545915
12/31/2020 $25 9 254821212085 eBay nightwatch216 Best Offer 15723337
12/30/2020 $35 9 154269578196 eBay nedice Best Offer 47914968
12/30/2020 $40 9 353275995297 eBay spaceman1958 Best Offer 02337460
12/30/2020 $46 9 402615999934 eBay pwcc_auctions Auction 20545915
12/29/2020 $5 8 (OC) 164606396809 eBay mathteacher1234 Auction 06203544
12/26/2020 $31 9 143890891820 eBay masonfamilybusiness Auction 11752239
12/24/2020 $9 8 353322493781 eBay tallguysportcards Auction 46287383
12/21/2020 $34 9 293889785698 eBay *odin23* Auction 90442913
12/20/2020 $36 9 254794386870 eBay gotbaseballcards Best Offer 48996711
12/20/2020 $35 9 133610557450 eBay cardfellas-matt Best Offer 47867094
12/19/2020 $32 9 383858076699 eBay mea-344 Auction 01579416
12/15/2020 $263 10 402589206512 eBay pwcc_auctions Auction 30489955
12/15/2020 $21 8 353304650541 eBay pwcc_auctions Auction 46752592
12/14/2020 $29 9 174548891121 eBay vintage4investments Auction 20027521
12/14/2020 $12 8 133596325358 eBay deathvalleydeals Auction 47413254
12/13/2020 $36 9 143875534186 eBay messiahjimmy Auction 27388771
12/13/2020 $40 9 233817431600 eBay nerdibird2020 Best Offer 04053097
12/12/2020 $25 9 (OC) 154233034269 eBay jake_walle82 Auction 01249394
12/11/2020 $50 9 373333320721 eBay vintagerookies Best Offer 25418010
12/08/2020 $10 8 373372971221 eBay gretzky2020 Auction 30489970
12/05/2020 $32 9 293862334657 eBay baseballjre Auction 24975717
12/04/2020 $11 8 154210868554 eBay r.o.b. Auction 43001195
12/03/2020 $250 10 293856419849 eBay blackjackbob21 Auction 30489932
12/02/2020 $29 9 293849244186 eBay baseballjre Auction 25559885
12/01/2020 $17 8 383825239339 eBay probstein123 Auction 31044598
11/29/2020 $27 9 293843455118 eBay baseballjre Auction 25563175
11/29/2020 $44 9 254786555413 eBay jennifermoney Auction 43438691
11/27/2020 $25 8 193684592899 eBay th3_ghost_kasper Best Offer 40334967
11/27/2020 $20 9 324383736546 eBay lisas0424 Auction 01794995
11/27/2020 $16 8 854 Sirius Sports Auctions Sirius Sports Cards Auction # 276 - Ends 11/27/20 Auction 22543739
11/26/2020 $29 9 363185136025 eBay probstein123 Auction 03210025
11/26/2020 $29 9 193743391954 eBay theorderguy Auction 01829644
11/23/2020 $22 9 254781575607 eBay cardboardtrading Auction 08178486
11/23/2020 $23 9 293829099583 eBay *odin23* Auction 90442915
11/20/2020 $25 9 193743391890 eBay theorderguy Auction 01224033
11/19/2020 $9 8 393014520327 eBay pmindiola73 Auction 11727595
11/17/2020 $17 8 383803340084 eBay probstein123 Auction 45873266
11/16/2020 $27 9 193742655195 eBay theorderguy Auction 01829645
11/13/2020 $339 10 402529372530 eBay pwcc_auctions Auction 28585058
11/13/2020 $33 9 353261012749 eBay pwcc_auctions Auction 45132657
11/12/2020 $28 9 383795405993 eBay probstein123 Auction 45473575
11/12/2020 $12 8 224222102289 eBay orangecrush1978 Auction 43001192
11/12/2020 $7 8 1429 Sirius Sports Auctions Sirius Sports Cards Auction # 275 - Ends 11/12/20 Auction 40378713
11/08/2020 $25 8 233669232168 eBay lasophis Best Offer 04766253
11/08/2020 $21 9 402525502103 eBay tobec_68 Auction 27584027
11/04/2020 $291 10 383783000918 eBay probstein123 Auction 81167111
11/03/2020 $9 8 154162439129 eBay learjetkid Auction 12508763
11/02/2020 $26 9 324348557913 eBay lodgsy Auction 11752239
11/01/2020 $10 8 353247452663 eBay chuckw99 Auction 47568286
10/31/2020 $13 8 164468211632 eBay lesliey27 Auction 05493449
10/30/2020 $10 8 274545208850 eBay mlberns52 Auction 07283851
10/29/2020 $287 10 353242633820 eBay pwcc_auctions Auction 07103768
10/29/2020 $6 8 976 Sirius Sports Auctions Sirius Sports Cards Auction # 274 - Ends 10/29/20 Auction 31374100
10/28/2020 $26 9 264909925537 eBay toncloy Auction 12000324
10/28/2020 $270 10 154155730932 eBay jaredg5308 Best Offer 27832540
10/28/2020 $25 9 363154579252 eBay tyarms_16 Best Offer 01579416
10/27/2020 $85 8 164356367917 eBay bluburk Best Offer 04429534
10/26/2020 $17 9 373295256281 eBay pallsport20 Auction 06357287
10/24/2020 $26 9 284048914321 eBay tombone27 Auction 25418021
10/24/2020 $12 8 164454417347 eBay lesliey27 Auction 05493455
10/23/2020 $25 9 184455105042 eBay a*t*y Best Offer 30527054
10/20/2020 $30 9 363147546763 eBay erber_2315 Best Offer 41037431
10/20/2020 $23 8 324284574405 eBay dukewins8075 Best Offer 11257154
10/20/2020 $22 8 383762500975 eBay probstein123 Auction 45873266
10/18/2020 $10 8 274496563005 eBay wolffpack3 Best Offer 03051102
10/18/2020 $22 9 324328569061 eBay lmeadors711 Auction 08144373
10/17/2020 $20 9 264894444441 eBay chuck196 Auction 90418312
10/15/2020 $25 9 193691434598 eBay garcia49ers05 Best Offer 04126236
10/15/2020 $261 10 402475307524 eBay pwcc_auctions Auction 07072872
10/15/2020 $324 10 353226006696 eBay pwcc_auctions Auction 81257712
10/15/2020 $7 8 143771133491 eBay pwcc_auctions Auction 44809310
10/15/2020 $17 9 1150 Sirius Sports Auctions Sirius Sports Cards Auction # 272 - Ends 10/1/20 Auction 48624614
10/14/2020 $300 10 293763092363 eBay rmjpro1 Best Offer 81257705
10/13/2020 $45 8 373251154609 eBay micgans-0 Auction 02369501
10/11/2020 $8 8 353225672560 eBay tallguysportcards Auction 47809656
10/09/2020 $36 9 233732263625 eBay gotbaseballcards Auction 48996710
10/07/2020 $330 10 154124558131 eBay newportcards Best Offer 40938899
10/07/2020 $10 8 193695597352 eBay jdsbullpen Auction 48752414
10/05/2020 $20 9 284026677923 eBay pa2cstlo Auction 12085351
09/30/2020 $39 9 143746018089 eBay pwcc_auctions Auction 09081409
09/30/2020 $10 8 402446087331 eBay pwcc_auctions Auction 45995952
09/30/2020 $10 8 143746017826 eBay pwcc_auctions Auction 45810346
09/30/2020 $10 8 353208391596 eBay pwcc_auctions Auction 44234448
09/30/2020 $12 8 124351628210 eBay dcsports87 Auction 46955926
09/29/2020 $20 8 373227357254 eBay bluegoldturquoise Auction 04199306
09/26/2020 $28 9 324300560635 eBay lmeadors711 Auction 06256744
09/23/2020 $275 10 284013318103 eBay dreww6796 Auction 07103920
09/21/2020 $32 9 1433 Sirius Sports Auctions Sirius Sports Cards Auction # 271 - Ends 9/17/20 Auction 48624613
09/17/2020 $44 9 143723635574 eBay pwcc_auctions Auction 03065218
09/17/2020 $19 8 402416581631 eBay pwcc_auctions Auction 27370273
09/14/2020 $13 9 (OC) 184426164521 eBay alcheez Auction 01249393
09/14/2020 $275 10 293719978618 eBay *odin23* Auction 90442909
09/13/2020 $28 9 324285835606 eBay lmeadors711 Auction 09083939
09/12/2020 $33 9 313192058881 eBay robseligma_0 Best Offer 21393618
09/11/2020 $18 9 353191395031 eBay investacard Auction 07087548
09/10/2020 $14 8 143718134987 eBay grapesodaworld Auction 01252799
09/10/2020 $13 8 264848854543 eBay realtimeoutsource Best Offer 04103544
09/06/2020 $35 9 203096869395 eBay cbcoolcards34 Best Offer 45808237
09/05/2020 $14 8 333697749059 eBay richierich32 Best Offer 31049073
09/05/2020 $14 8 333697747990 eBay richierich32 Best Offer 31049074
09/02/2020 $200 10 224142600131 eBay brotherskeeperagamuffin Best Offer 30489930
09/02/2020 $6 8 324274134240 eBay oj2 Auction 26936734
09/01/2020 $28 9 324272437824 eBay lmeadors711 Auction 09083939
08/31/2020 $25 8 154054037776 eBay peal7878 Auction 47982479
08/30/2020 $40 9 324238769333 eBay iam4gt Best Offer 60000904
08/29/2020 $19 8 184408618880 eBay llebcire1 Auction 05197521
08/28/2020 $11 8.5 1229 Sirius Sports Auctions Sirius Sports Cards Auction # 269 - Ends 8/20/20 Auction 24987165
08/27/2020 $53 9 233687432565 eBay uclamhs Auction 30926136
08/27/2020 $279 10 383683759773 eBay probstein123 Auction 11117935
08/27/2020 $290 10 383683760171 eBay probstein123 Auction 09076032
08/27/2020 $280 10 383683758920 eBay probstein123 Auction 07114879
08/27/2020 $330 10 373154428461 eBay probstein123 Auction 43389043
08/26/2020 $50 8 274469728327 eBay vanal22 Best Offer 14267249
08/25/2020 $33 9 324265165657 eBay lmeadors711 Auction 09083939
08/24/2020 $350 10 293703059285 eBay jj100 Best Offer 28852922
08/20/2020 $36 8 174303253116 eBay baseballguru2323 Best Offer 45165804
08/18/2020 $16 8 363072605184 eBay probstein123 Auction 45525030
08/18/2020 $32 9 363070216910 eBay probstein123 Auction 45525032
08/17/2020 $21 9 293684315857 eBay sportcardpros Auction 08161190
08/17/2020 $26 9 124280166537 eBay tdogsman Auction 47407642
08/16/2020 $11 8 293684101829 eBay 4_sportscardz Auction 44747118
08/15/2020 $32 9 324254684320 eBay lmeadors711 Auction 09083939
08/13/2020 $360 10 392906209891 eBay rkra7566 Best Offer 40560373
08/10/2020 $305 10 274453391707 eBay gma-all-the-way Best Offer 43025812
08/10/2020 $34 9 124279999777 eBay lmgroup07 Auction 04435892
08/08/2020 $33 9 124280165545 eBay tdogsman Auction 47407641
08/07/2020 $375 10 264822536978 eBay 4_sharp_corners Buy It Now 47308812
08/07/2020 $330 10 224105839713 eBay cbuh1099 Best Offer 24830698
08/07/2020 $12 9 303643781337 eBay e**a72 Auction 12112078
08/05/2020 $16 8 184376308315 eBay llebcire1 Auction 01131627
08/04/2020 $31 9 264811699632 eBay stephenheimer33 Auction 41528521
08/03/2020 $18 8 233662772184 eBay lasophis Best Offer 04766255
08/02/2020 $38 9 293648398296 eBay bigfil108 Auction 41260069
08/02/2020 $40 9 303640960847 eBay jddog1 Buy It Now 03556822
08/02/2020 $39 9 373134218995 eBay gogreengowhite0656 Auction 50065284
07/31/2020 $20 8 373132232913 eBay tssc1 Buy It Now 30761604
07/31/2020 $320 10 373086585713 eBay vintagerookies Best Offer 90442920
07/31/2020 $20 8 124277125954 eBay quickiejoe Best Offer 01376031
07/31/2020 $34 9 184375458711 eBay blackbeardsportscards Auction 47159197
07/30/2020 $35 9 283963679135 eBay sutphen Buy It Now 47917949
07/30/2020 $22 8 363060904704 eBay 4_sharp_corners Buy It Now 47148426
07/30/2020 $33 9 124272353431 eBay shewilneverbeme Auction 44930943
07/29/2020 $39 9 324218895771 eBay lagthecollapse Best Offer 31053947
07/29/2020 $38 9 353143850299 eBay pwcc_auctions Auction 24665073
07/29/2020 $19 8 402330823204 eBay pwcc_auctions Auction 28598149
07/28/2020 $25 9 324243730225 eBay dandicgra Best Offer 60000897
07/28/2020 $29 9 293659566329 eBay dav2874 Auction 40386273
07/28/2020 $32 9 1401 Sirius Sports Auctions Sirius Sports Cards Auction # 267 - Ends 7/23/20 Auction 41691473
07/28/2020 $11 8 1400 Sirius Sports Auctions Sirius Sports Cards Auction # 267 - Ends 7/23/20 Auction 44273852
07/27/2020 $11 8 324210619045 eBay obez Auction 04338464
07/26/2020 $57 9 233654863001 eBay uclamhs Auction 30926135
07/26/2020 $32 9 324234112132 eBay rjdoggy Auction 01066878
07/24/2020 $14 8 353148273429 eBay normandavid Best Offer 11410653
07/24/2020 $22 8 383636074829 eBay 4_sharp_corners Best Offer 47148427
07/24/2020 $265 10 283950381129 eBay dreww6796 Auction 28852934
07/23/2020 $26 9 293659870865 eBay ri_1075 Best Offer 47308811
07/23/2020 $330 10 143662926110 eBay cohocorp Buy It Now 30724362
07/23/2020 $50 9 233601560469 eBay tnt_sportsnutrition Best Offer 12524338
07/21/2020 $25 9 293651155321 eBay dav2874 Auction 40386273
07/21/2020 $26 9 174352356148 eBay rbflea3 Auction 30489954
07/20/2020 $324 10 143653360054 eBay pwcc_auctions Auction 07103243
07/18/2020 $32 9 174348868532 eBay rbflea3 Auction 30489927
07/18/2020 $36 9 293646860955 eBay badiola Buy It Now 02362779
07/16/2020 $35 9 324228608235 eBay superdave Buy It Now 81761815
07/16/2020 $72 9 184358614631 eBay wally45427 Auction 40619526
07/16/2020 $271 10 124258351242 eBay yankeesbravesfan Buy It Now 16818963
07/16/2020 $36 9 143650499927 eBay sportsandsorts75 Auction 45132657
07/16/2020 $14 8 143650499917 eBay sportsandsorts75 Auction 44175567
07/15/2020 $27 8 324208509466 eBay bestsportscardsandcollectables Buy It Now 46632529
07/15/2020 $310 10 324223867956 eBay leadingprospects1 Auction 20217118
07/15/2020 $10 8 114293132833 eBay millzeit Auction 30915237
07/13/2020 $35 9 1265 Sirius Sports Auctions Sirius Sports Cards Auction # 266 - Ends 7/9/20 Auction 03741532
07/13/2020 $12 8 1264 Sirius Sports Auctions Sirius Sports Cards Auction # 266 - Ends 7/9/20 Auction 08180113
07/12/2020 $48 8 184353624624 eBay wally45427 Auction 04766254
07/11/2020 $300 10 193558915403 eBay yankeesbravesfan Buy It Now 16818964
07/09/2020 $50 9 274411427598 eBay trepidation34 Best Offer 04448379
07/09/2020 $89 9 184350173769 eBay wally45427 Auction 40619526
07/09/2020 $41 9 224017047858 eBay graded_psa_cards Best Offer 50085201
07/09/2020 $41 9 254621348341 eBay graded_psa_cards Best Offer 26838483
07/09/2020 $40 9 114288962668 eBay linda7041 Auction 11678509
07/08/2020 $26 8.5 233633692886 eBay comc_consignment Auction 42068070
07/07/2020 $288 10 174336317780 eBay ted4623 Auction 40560373
07/07/2020 $38 9 153989553329 eBay caloakart Auction 04120287
07/07/2020 $400 10 124196598801 eBay $guru$ Buy It Now 42068399
07/07/2020 $36 9 324211685663 eBay go_baltimore Auction 07100806
07/06/2020 $21 8 283929751789 eBay stevetrekker Auction 05454889
07/06/2020 $50 9 193541089611 eBay jacrank79 Auction 08156801
07/04/2020 $32 9 283936399499 eBay brownroan Best Offer 02166993
07/03/2020 $20 8 153963632773 eBay allilee7788 Buy It Now 44235808
07/02/2020 $61 9 233630175791 eBay uclamhs Auction 30926135
07/01/2020 $16 8 303604465824 eBay jakkles_sports Auction 03116377
07/01/2020 $284 10 373092179843 eBay probstein123 Auction 21103322
06/30/2020 $250 10 203028039087 eBay tebow_82 Buy It Now 44930944
06/29/2020 $263 10 1267 Sirius Sports Auctions Sirius Sports Cards Auction # 265 - Ends 6/25/20 Auction 41691472
06/29/2020 $35 9 1266 Sirius Sports Auctions Sirius Sports Cards Auction # 265 - Ends 6/25/20 Auction 44273847
06/27/2020 $15 8 363026939481 eBay cng.sports Auction 31066219
06/27/2020 $295 10 254633155786 eBay high-endcards Best Offer 27735494
06/26/2020 $39 9 383579213713 eBay finch21 Best Offer 01794983
06/26/2020 $17 8 233598331166 eBay bestsportscardsplus Buy It Now 02471228
06/26/2020 $252 10 174318333812 eBay ted4623 Auction 07095783
06/25/2020 $252 10 174323599274 eBay josephjohnsy Auction 30026805
06/24/2020 $25 9 124234457815 eBay card-collecting Buy It Now 30002105
06/23/2020 $17 8 264769796980 eBay viszala0 Buy It Now 04110532
06/23/2020 $19 8 363022712538 eBay probstein123 Auction 43580267
06/23/2020 $236 10 143632750200 eBay feathers980 Auction 28852943
06/22/2020 $10 5 313104987457 eBay jialong Buy It Now 27890848
06/22/2020 $29 9 164246266262 eBay nvarea Auction 81009545
06/22/2020 $25 9 233626349102 eBay smithstubbs Buy It Now 08149138
06/21/2020 $38 9 264764053223 eBay 4_sportscardz Auction 44747116
06/21/2020 $219 10 203018673585 eBay 2015_figh Auction 81190730
06/20/2020 $250 10 293617290189 eBay antwayne.doc Buy It Now 06328260
06/19/2020 $25 9 233624358646 eBay smithstubbs Buy It Now 09081440
06/19/2020 $265 10 283910974854 eBay eiubowler206 Auction 24830695
06/18/2020 $149 9 324202884688 eBay 123jacs Best Offer 08143945
06/18/2020 $36 9 233611201477 eBay comc_consignment Auction 31053967
06/17/2020 $9 8 353101898498 eBay rld119 Auction 44175532
06/16/2020 $237 10 363016634686 eBay probstein123 Auction 07103920
06/15/2020 $45 9 274381726864 eBay ryanlovelauren Buy It Now 08144283
06/13/2020 $36 9 324189087367 eBay augustus_gloop Auction 01787700
06/12/2020 $36 9 184318992703 eBay jmodica22 Auction 81918405
06/12/2020 $35 9 383575018756 eBay probstein123 Auction 30400746
06/12/2020 $38 9 133436151313 eBay goldenspikessportscards Buy It Now 45693780
06/11/2020 $290 10 153953918279 eBay mr.realtyenterprises Buy It Now 50085268
06/11/2020 $310 10 283897486866 eBay brockbm Buy It Now 28852952
06/11/2020 $31 9 383574512872 eBay probstein123 Auction 19229956
06/11/2020 $37 9 153959316929 eBay pc_sportscards Auction 43025807
06/11/2020 $31 9 363011760698 eBay probstein123 Auction 01794986
06/11/2020 $17 8 383573969170 eBay probstein123 Auction 28130953
06/09/2020 $340 10 193504794104 eBay yankeesbravesfan Best Offer 16818962
06/08/2020 $40 9 383580254274 eBay witt36 Best Offer 50000351
06/08/2020 $43 9 153949840384 eBay mv1965 Auction 43025823
06/08/2020 $310 10 264746331679 eBay bravesfansince96 Buy It Now 07072872
06/07/2020 $35 9 264756636783 eBay adaminsky79 Best Offer 40763323
06/07/2020 $7 7 274383414172 eBay jwest1557 Auction 45191561
06/07/2020 $36 9 264748998072 eBay coresclassics6t25 Auction 45165808
06/07/2020 $35 9 264748997123 eBay coresclassics6t25 Auction 45165806
06/07/2020 $35 9 313101477223 eBay coresclassics6t25 Auction 45165807
06/07/2020 $21 8 313101475106 eBay coresclassics6t25 Auction 24743450
06/07/2020 $19 8 153960232912 eBay allilee7788 Buy It Now 44235808
06/07/2020 $28 9 153949684307 eBay kcfutures9 Auction 43925750
06/06/2020 $40 9 363013254320 eBay witt36 Best Offer 30079863
06/04/2020 $302 10 233598932957 eBay jjstoyz Auction 28576817
06/04/2020 $250 10 392825145913 eBay lionpride Buy It Now 08161089
06/04/2020 $39 9 114239490996 eBay sly235 Auction 30024527
06/04/2020 $51 9 153949838133 eBay mv1965 Auction 43025815
06/04/2020 $23 8 293594198230 eBay qconnolly3469 Auction 02525783
06/03/2020 $19 8 383563190076 eBay probstein123 Auction 01823698
06/02/2020 $42 9 133423221160 eBay r3k1975 Auction 25433557
06/02/2020 $250 10 124210071009 eBay ebco856 Buy It Now 41671678
06/02/2020 $275 10 324160215403 eBay 123jacs Best Offer 44012128
06/01/2020 $249 10 124207769116 eBay djh2 Best Offer 06360557
06/01/2020 $238 10 124201378668 eBay djh2 Auction 11142063
05/31/2020 $34 9 124206269586 eBay djh2 Auction 40265302
05/31/2020 $40 9 203000831289 eBay injuryprone1 Auction 40560337
05/31/2020 $31 9 203000828505 eBay injuryprone1 Auction 40560366
05/30/2020 $250 10 164224974538 eBay dmaul83 Best Offer 40938899
05/30/2020 $260 10 124206003400 eBay yankeesbravesfan Buy It Now 81257729
05/30/2020 $32 9 184302854378 eBay willikn Auction 40013124
05/30/2020 $14 9 313092150749 eBay coresclassics6t25 Auction 22098431
05/30/2020 $21 8 184302006914 eBay sumtrading Auction 01838064
05/30/2020 $215 10 124201354553 eBay djh2 Auction 27232384
05/30/2020 $35 9 153939404711 eBay kcfutures9 Auction 43925749
05/30/2020 $36 9 333605688940 eBay nathanmcmurphy Auction 06340136
05/29/2020 $39 9 264739742315 eBay coresclassics6t25 Auction 45165805
05/29/2020 $14 8 313091140928 eBay coresclassics6t25 Auction 45165804
05/29/2020 $21 8 254610839631 eBay allaboutpocketknives Buy It Now 43025834
05/29/2020 $44 9 363000364169 eBay probstein123 Auction 08149094
05/29/2020 $251 10 353080606053 eBay pwcc_auctions Auction 06360557
05/29/2020 $248 10 124202692223 eBay djh2 Auction 06360557
05/29/2020 $35 9 1469 Sirius Sports Auctions Sirius Sports Cards Auction # 263 - Ends 5/28/20 Auction 44273839
05/28/2020 $36 9 254603529935 eBay jgc3 Auction 08149119
05/28/2020 $28 9 233589734421 eBay comc_consignment Auction 27682530
05/28/2020 $41 9 164205877757 eBay kcfutures9 Auction 90031468
05/27/2020 $36 9 202996522865 eBay mrtiki23 Auction 01839340
05/27/2020 $321 10 383553516345 eBay probstein123 Auction 28852912
05/26/2020 $3 8.5 233593227269 eBay rlm1lmm Auction 44137881
05/26/2020 $4 8.5 233593227203 eBay rlm1lmm Auction 44137881
05/26/2020 $10 8.5 233593226794 eBay rlm1lmm Auction 44137881
05/26/2020 $30 8.5 233593226350 eBay rlm1lmm Auction 44137881
05/26/2020 $10 8.5 233593226323 eBay rlm1lmm Auction 44137881
05/26/2020 $15 8.5 233593226298 eBay rlm1lmm Auction 44137881
05/26/2020 $19 8.5 233593226280 eBay rlm1lmm Auction 44137881
05/26/2020 $11 8.5 233593226256 eBay rlm1lmm Auction 44137881
05/26/2020 $16 8.5 233593226211 eBay rlm1lmm Auction 44137881
05/26/2020 $10 8.5 233593225966 eBay rlm1lmm Auction 44137881
05/26/2020 $7 8.5 233593225913 eBay rlm1lmm Auction 44137881
05/26/2020 $7 8.5 233593225884 eBay rlm1lmm Auction 44137881
05/26/2020 $5 8.5 233593225799 eBay rlm1lmm Auction 44137881
05/26/2020 $5 8.5 233593225715 eBay rlm1lmm Auction 44137881
05/26/2020 $10 8.5 233593225700 eBay rlm1lmm Auction 44137881
05/26/2020 $7 8.5 233593225648 eBay rlm1lmm Auction 44137881
05/26/2020 $10 8.5 233593225622 eBay rlm1lmm Auction 44137881
05/26/2020 $3 8.5 233593225523 eBay rlm1lmm Auction 44137881
05/26/2020 $18 8.5 233593225357 eBay rlm1lmm Auction 44137881
05/26/2020 $9 8.5 233593225344 eBay rlm1lmm Auction 44137881
05/26/2020 $13 8.5 233593225305 eBay rlm1lmm Auction 44137881
05/26/2020 $18 8.5 233593225282 eBay rlm1lmm Auction 44137881
05/26/2020 $22 8.5 233593225010 eBay rlm1lmm Auction 44137881
05/26/2020 $44 9 224013041202 eBay baseballjre Auction 25563173
05/26/2020 $265 10 293583341860 eBay tysv_0 Buy It Now 81866352
05/26/2020 $24 8 373053864066 eBay probstein123 Auction 43580267
05/25/2020 $40 9 203001407906 eBay calebbruin121 Buy It Now 08144015
05/25/2020 $47 9 164205753068 eBay mv1965 Auction 43025827
05/24/2020 $34 9 274368864082 eBay richbar1 Auction 11280685
05/24/2020 $257 10 193463407836 eBay brosauto14 Auction 23031261
05/24/2020 $245 10 124190679446 eBay rvillepmt123 Best Offer 31516652
05/24/2020 $30 9 224021034162 eBay josephswager-us Buy It Now 44424506
05/23/2020 $25 8 383549481865 eBay go4it24.7 Auction 90069700
05/23/2020 $250 10 124193051367 eBay yankeesbravesfan Buy It Now 07072872
05/23/2020 $39 9 324165068126 eBay go_baltimore Auction 22098431
05/23/2020 $25 8 202996239857 eBay oddmerchantsvintage Best Offer 45352656
05/23/2020 $55 9 313084518077 eBay jaysace Best Offer 42662783
05/22/2020 $23 8 184293480267 eBay mkskillz013 Auction 11415959
05/22/2020 $46 9 383546364084 eBay probstein123 Auction 43581233
05/22/2020 $41 9 383546349188 eBay probstein123 Auction 43581232
05/22/2020 $222 10 313083162032 eBay joesvintagesportscardsii Auction 07103920
05/21/2020 $25 9 392807977679 eBay jashu1363 Buy It Now 45216707
05/21/2020 $55 9 313084516584 eBay jaysace Best Offer 43389041
05/21/2020 $55 9 193467465430 eBay jaysace Best Offer 43389048
05/21/2020 $44 9 153940725190 eBay opc_baseball Best Offer 44620841
05/21/2020 $243 10 254595459789 eBay read007 Auction 09180189
05/20/2020 $40 9 254600792618 eBay graded_psa_cards Best Offer 22085639
05/20/2020 $238 10 392796020686 eBay lionpride Auction 08161089
05/19/2020 $255 10 303567030153 eBay vintagerookies Best Offer 23031260
05/18/2020 $19 8 153932820268 eBay opc_baseball Best Offer 42802259
05/18/2020 $41 9 153935243425 eBay opc_baseball Best Offer 42802258
05/18/2020 $50 9 153926831826 eBay mv1965 Auction 43025825
05/18/2020 $50 9 164193281068 eBay mv1965 Auction 43025829
05/18/2020 $41 9 124182960510 eBay jackbridges57 Auction 02540277
05/17/2020 $35 9 223084997124 eBay nvalorie Buy It Now 81009537
05/17/2020 $4 5 202987329584 eBay weisfuss3 Auction 43470982
05/17/2020 $15 8 133401615373 eBay saint19731 Buy It Now 24743450
05/17/2020 $238 10 174285202651 eBay itzamnapga Buy It Now 27832543
05/17/2020 $40 9 192367271330 eBay calebbruin121 Buy It Now 08144015
05/17/2020 $34 9 303564948902 eBay ohio8787 Best Offer 81167285
05/16/2020 $42 9 153928260459 eBay rodbishop1 Auction 41666309
05/16/2020 $255 10 324161685237 eBay leadingprospects1 Auction 81167111
05/16/2020 $225 10 264731191593 eBay oldnavy2012 Best Offer 42095026
05/16/2020 $38 9 174283425672 eBay opc_baseball Best Offer 44016725
05/15/2020 $30 7 173882021424 eBay colosus2003 Best Offer 27371706
05/15/2020 $208 10 143596475712 eBay pwcc_auctions Auction 60000806
05/15/2020 $29 9 324158571691 eBay bish_andrew Auction 43708281
05/15/2020 $28 9 1356 Sirius Sports Auctions Sirius Sports Cards Auction # 262 - Ends 5/14/20 Auction 44273861
05/14/2020 $32 9 293579349022 eBay badiola Buy It Now 02362775
05/14/2020 $30 9 174282271721 eBay opc_baseball Best Offer 44620840
05/13/2020 $12 8 133407268946 eBay kid_dynamite21 Buy It Now 06083534
05/13/2020 $38 9 264722667492 eBay mikeny Best Offer 20800302
05/13/2020 $208 10 324157134167 eBay joesvintagesportscardsii Auction 40369691
05/13/2020 $225 10 133408586900 eBay philmington Best Offer 42244542
05/10/2020 $25 9 153926714375 eBay carrotop79 Buy It Now 11943408
05/10/2020 $11 8 202977509609 eBay nannybirdteesncollectibles Best Offer 02478103
05/10/2020 $11 8 153908469818 eBay opc_baseball Best Offer 44620830
05/10/2020 $15 8 402249145725 eBay oldies.but.goodies.cards Best Offer 45352656
05/10/2020 $40 9 193443600383 eBay oddmerchantsvintage Best Offer 45767502
05/09/2020 $30 9 233580860532 eBay bqvist18 Best Offer 31053960
05/09/2020 $22 8 254586114454 eBay eagles1306 Auction 31604894
05/09/2020 $20 9 133404121603 eBay mick7* Buy It Now 21169173
05/09/2020 $28 9 274353845950 eBay bigmike11779 Auction 27342829
05/07/2020 $120 8 324157042638 eBay 123jacs Best Offer 44012120
05/07/2020 $250 9 224000523158 eBay 123jacs Best Offer 27310645
05/05/2020 $27 9 174271656218 eBay opc_baseball Best Offer 44620823
05/05/2020 $30 9 254230356514 eBay stepheiovinell_0 Buy It Now 31136278
05/05/2020 $199 10 324148527626 eBay joesvintagesportscardsii Auction 03741485
05/05/2020 $198 10 153919259957 eBay opc_baseball Best Offer 44620820
05/04/2020 $35 9 143567483519 eBay amerlegends Best Offer 04428469
05/04/2020 $30 9 303108494310 eBay 1957topps Best Offer 20758304
05/04/2020 $25 9 373041221806 eBay auctioncrew922 Buy It Now 45299545
05/04/2020 $22 9 143591164815 eBay nayte1_1 Auction 08144015
05/04/2020 $18 8 153907040100 eBay kcfutures9 Auction 45506094
05/03/2020 $18 8 143188210870 eBay saint19731 Buy It Now 24743450
05/03/2020 $25 9 324153789056 eBay go_baltimore Auction 22098431
05/02/2020 $28 9 263169269290 eBay mikeny Best Offer 25399750
05/01/2020 $199 10 223996019560 eBay 123jacs Best Offer 18358059
04/30/2020 $30 9 143567483543 eBay amerlegends Best Offer 30345649
04/30/2020 $25 9 114176214044 eBay lantingcollectables Best Offer 08143969
04/29/2020 $300 10 313067513273 eBay vintagerookies Auction 28852930
04/28/2020 $29 9 273551526494 eBay procards99 Buy It Now 08144379
04/27/2020 $20 9 143574378443 eBay lantingcollectables Best Offer 81167180
04/27/2020 $20 9 143574376302 eBay lantingcollectables Best Offer 81167185
04/27/2020 $20 9 114176225295 eBay lantingcollectables Best Offer 01738823
04/27/2020 $20 9 143574375878 eBay lantingcollectables Best Offer 81167179
04/27/2020 $20 9 143574380668 eBay lantingcollectables Best Offer 81167261
04/27/2020 $100 9 124133699572 eBay eareli-0 Best Offer 60039235
04/27/2020 $179 10 313055671928 eBay azsteeltown1028 Buy It Now 09076032
04/26/2020 $16 9 153903378806 eBay wbnichols Auction 21393618
04/26/2020 $180 10 313060905826 eBay jaysace Best Offer 43389043
04/26/2020 $20 9 143574379689 eBay lantingcollectables Best Offer 81167289
04/26/2020 $35 9 303468099537 eBay jasojohnso_598 Buy It Now 25399750
04/25/2020 $10 8 254558306259 eBay sooners_swag2018 Buy It Now 07241845
04/25/2020 $19 9 153908469867 eBay opc_baseball Best Offer 44620823
04/24/2020 $12 8 163677962681 eBay mks1162 Buy It Now 04433123
04/23/2020 $149 10 223984036168 eBay 123jacs Best Offer 44012130
04/23/2020 $9 8 184185546552 eBay christinauto-0 Best Offer 44776415
04/23/2020 $36 9 362971514749 eBay probstein123 Auction 27283851
04/22/2020 $20 8 382871134219 eBay superiorsportsinvestments Best Offer 03537923
04/22/2020 $21 9 313054485785 eBay josch-961 Auction 90100747
04/20/2020 $12 8.5 174196776362 eBay opc_baseball Best Offer 44630152
04/20/2020 $15 9 114176213722 eBay lantingcollectables Best Offer 81167212
04/20/2020 $30 9 313021614075 eBay jerco_4329 Buy It Now 42203464
04/19/2020 $24 9 174062419463 eBay baseballguru2323 Best Offer 08084313
04/18/2020 $13 8.5 293550457071 eBay agile-collector Buy It Now 41015809
04/18/2020 $15 9 143574381435 eBay lantingcollectables Best Offer 81167285
04/18/2020 $15 9 143574368172 eBay lantingcollectables Best Offer 81167287
04/18/2020 $15 9 143574371215 eBay lantingcollectables Best Offer 81167210
04/17/2020 $21 9 362966708347 eBay probstein123 Auction 09081415
04/16/2020 $160 10 153896247272 eBay clambert1 Best Offer 28585058
04/16/2020 $159 10 153808162381 eBay opc_baseball Best Offer 44620835
04/13/2020 $20 9 264693716783 eBay romo-9095 Buy It Now 09072824
04/13/2020 $21 9 313047309659 eBay jaysace Auction 42393326
04/13/2020 $16 9 293534050306 eBay *odin23* Auction 90442912
04/12/2020 $155 10 264678205019 eBay 4_sharp_corners Best Offer 43025822
04/12/2020 $15 9 164146219810 eBay kcfutures9 Auction 30010967
04/10/2020 $15 9 114176203088 eBay lantingcollectables Best Offer 81167266
04/08/2020 $19 9 153889980464 eBay opc_baseball Best Offer 44016724
04/08/2020 $16 8.5 233545464685 eBay rlm1lmm Auction 44137881
04/08/2020 $85 8.5 233545464591 eBay rlm1lmm Auction 44137881
04/08/2020 $15 8.5 233545464488 eBay rlm1lmm Auction 44137881
04/08/2020 $28 8.5 233545464391 eBay rlm1lmm Auction 44137881
04/08/2020 $11 8.5 233545464272 eBay rlm1lmm Auction 44137881
04/08/2020 $10 8.5 233545464122 eBay rlm1lmm Auction 44137881
04/08/2020 $15 8.5 233545463519 eBay rlm1lmm Auction 44137881
04/08/2020 $40 8.5 233545463497 eBay rlm1lmm Auction 44137881
04/08/2020 $20 8.5 233545463476 eBay rlm1lmm Auction 44137881
04/07/2020 $12 9 853 Sirius Sports Auctions Sirius Sports Cards Auction # 260 - Ends 4/2/20 Auction 44273859
04/05/2020 $30 9 223962175162 eBay jlmf-97 Buy It Now 04040950
04/05/2020 $25 9 223900047835 eBay bestsportscardsandcollectables Buy It Now 44768289
04/05/2020 $130 10 233527105057 eBay issuesunknown Best Offer 45190997
04/04/2020 $125 10 223956279596 eBay 123jacs Best Offer 27310700
04/03/2020 $19 9 174228257540 eBay opc_baseball Buy It Now 44016728
04/02/2020 $9 8 (OC) 362910131182 eBay keba-7108 Buy It Now 06196697
03/31/2020 $114 10 353015808701 eBay pwcc_auctions Auction 44640626
03/31/2020 $112 10 143561408904 eBay pwcc_auctions Auction 45958079
03/30/2020 $120 10 233524677089 eBay milkmanway5 Buy It Now 81905696
03/28/2020 $14 9 193400163224 eBay multicolorbeast Best Offer 45642780
03/25/2020 $10 8 164131396025 eBay the_masters*1 Auction 28486854
03/24/2020 $22 9 383467696011 eBay probstein123 Auction 81167311
03/23/2020 $8 9 1006 Sirius Sports Auctions Sirius Sports Cards Auction # 259 - Ends 3/19/20 Auction 44273857
03/22/2020 $8 9 293512746851 eBay eworldcollectibles Auction 08136461
03/21/2020 $34 8.5 233527350252 eBay rlm1lmm Auction 44137881
03/21/2020 $20 8.5 233527350191 eBay rlm1lmm Auction 44137881
03/21/2020 $65 8.5 233527350178 eBay rlm1lmm Auction 44137881
03/21/2020 $10 8.5 233527349886 eBay rlm1lmm Auction 44137881
03/21/2020 $35 8.5 233527349634 eBay rlm1lmm Auction 44137881
03/21/2020 $46 8.5 233527349331 eBay rlm1lmm Auction 44137881
03/21/2020 $7 8.5 233527349036 eBay rlm1lmm Auction 44137881
03/21/2020 $112 10 233523401507 eBay milkmanway5 Auction 81678289
03/20/2020 $15 9 233517820707 eBay comc_consignment Auction 27682539
03/18/2020 $112 10 193373439093 eBay mimsdar Auction 81639234
03/17/2020 $119 10 402145838918 eBay pwcc_auctions Auction 26161857
03/17/2020 $112 10 352995747004 eBay pwcc_auctions Auction 02450085
03/15/2020 $15 9 264660723208 eBay 4_sportscardz Auction 44747115
03/11/2020 $16 9 153850203685 eBay kcfutures9 Auction 27584027
03/11/2020 $106 10 324093379318 eBay thostetler79 Auction 23408099
03/11/2020 $4 8.5 303506621057 eBay completegamesportscards Auction 44137881
03/06/2020 $12 9 293495315175 eBay aegir-fob Auction 11117944
03/06/2020 $142 10 223881061326 eBay graded_psa_cards Buy It Now 27439552
03/05/2020 $14 9 333526030803 eBay fillmores**flea**market Best Offer 05457555
03/05/2020 $46 8.5 233508257897 eBay rlm1lmm Auction 44137881
03/05/2020 $10 8.5 233508257676 eBay rlm1lmm Auction 44137881
03/05/2020 $20 8.5 233508255096 eBay rlm1lmm Auction 44137881
03/05/2020 $25 8.5 233508254692 eBay rlm1lmm Auction 44137881
03/05/2020 $77 8.5 233508254609 eBay rlm1lmm Auction 44137881
03/05/2020 $40 8.5 233508254299 eBay rlm1lmm Auction 44137881
03/05/2020 $10 8.5 233508254183 eBay rlm1lmm Auction 44137881
03/05/2020 $28 8.5 233508254067 eBay rlm1lmm Auction 44137881
03/04/2020 $150 10 41092 Heritage Auctions Sunday Sports Collectibles Weekly Online Auction Auction 81167132
03/01/2020 $10 9 193356519072 eBay thepackripper Auction 08144165
02/29/2020 $25 9 383428841185 eBay superiorsportsinvestments Buy It Now 30082844
02/24/2020 $103 10 303490987272 eBay bayby1 Auction 40558950
02/23/2020 $20 9 312997344401 eBay jaysace Auction 43389046
02/21/2020 $10 9 392686362829 eBay rhare1 Auction 81672728
02/20/2020 $105 10 233491713946 eBay uclamhs Auction 30926123
02/20/2020 $12 9 1061 Sirius Sports Auctions Sirius Sports Cards Auction # 257 - Ends 2/20/20 Auction 44273856
02/20/2020 $8 8 1060 Sirius Sports Auctions Sirius Sports Cards Auction # 257 - Ends 2/20/20 Auction 44273854
02/18/2020 $109 10 383417049329 eBay probstein123 Auction 81800317
02/17/2020 $123 10 352964201366 eBay pwcc_auctions Auction 24830703
02/16/2020 $14 9 264628888731 eBay 4_sportscardz Auction 44747114
02/14/2020 $11 8.5 174107001105 eBay opc_baseball Buy It Now 44620829
02/13/2020 $8 8 264591097070 eBay fireflyer20 Buy It Now 44475694
02/12/2020 $180 10 153590042226 eBay royalpalacesportscards Buy It Now 42580449
02/10/2020 $121 10 362900190056 eBay probstein123 Auction 26995231
02/10/2020 $20 9 372940310423 eBay probstein123 Auction 44641173
02/09/2020 $130 10 143516458913 eBay sellin-it Buy It Now 27388774
02/09/2020 $18 9 293457207001 eBay 4_sportscardz Auction 44747112
02/08/2020 $17 9 233476486122 eBay comc_consignment Auction 27310702
02/08/2020 $19 9 153814222323 eBay kcfutures9 Auction 44657656
02/07/2020 $18 9 383406853818 eBay cindele0 Auction 05503664
02/06/2020 $23 9 372935421262 eBay probstein123 Auction 03667171
02/06/2020 $26 9 372935421699 eBay probstein123 Auction 90382954
02/05/2020 $13 9 233476451028 eBay comc_consignment Auction 02540228
02/05/2020 $103 10 312976764787 eBay jjpcards Auction 23031260
02/02/2020 $146 10 293444875291 eBay 4_sportscardz Auction 44747113
02/01/2020 $12 9 233468583208 eBay comc_consignment Auction 11117934
01/30/2020 $17 9 324053851508 eBay go_baltimore Auction 22098430
01/30/2020 $13 9 254490957136 eBay llabesab17 Auction 08136463
01/29/2020 $16 9 233468562042 eBay comc_consignment Auction 40863470
01/29/2020 $140 10 352940071439 eBay pwcc_auctions Auction 40369722
01/25/2020 $9 8 303447191804 eBay www2 Auction 44323135
01/19/2020 $143 10 402031787942 eBay pwcc_auctions Auction 23031260
01/19/2020 $27 9 352927219667 eBay pwcc_auctions Auction 43013407
01/18/2020 $128 10 254478948613 eBay silkysmooth916 Auction 28852930
01/17/2020 $154 10 153735204421 eBay opc_baseball Buy It Now 44620835
01/16/2020 $13 9 254476891804 eBay sps23lab Auction 31779769
01/11/2020 $20 9 123821076630 eBay bbcardconnection Buy It Now 12085347
01/09/2020 $6 8 133292039794 eBay danhobbs Auction 30228353
01/07/2020 $15 9 274176199784 eBay cardlady68 Auction 03667189
01/07/2020 $4 8 143485179002 eBay 33marino33 Auction 90009303
01/04/2020 $5 8 303416394376 eBay www2 Auction 44323136
12/30/2019 $10 9 972 Sirius Sports Auctions Sirius Sports Cards Auction # 253 - Ends 12/26/19 Auction 44273850
12/30/2019 $10 8 971 Sirius Sports Auctions Sirius Sports Cards Auction # 253 - Ends 12/26/19 Auction 44273860
12/29/2019 $13 9 362859936036 eBay baseballcardsandcollectibles Auction 04448390
12/27/2019 $13 9 223806270247 eBay mahan-ian Auction 03490250
12/22/2019 $111 10 352889236382 eBay pwcc_auctions Auction 25078900
12/22/2019 $111 10 143470071891 eBay pwcc_auctions Auction 27310666
12/18/2019 $15 9 1154 Sirius Sports Auctions Sirius Sports Cards Auction # 252 - Ends 12/12/19 Auction 44273849
12/18/2019 $6 8 1153 Sirius Sports Auctions Sirius Sports Cards Auction # 252 - Ends 12/12/19 Auction 44273846
12/17/2019 $4 8 223785155494 eBay bpelczarski Auction 40182676
12/16/2019 $177 10 293370023784 eBay bigboydsportscards3 Auction 07064092
12/16/2019 $138 10 233428682605 eBay scwi84 Auction 43948767
12/11/2019 $136 10 352874750761 eBay pwcc_auctions Auction 24736254
12/11/2019 $121 10 143458702460 eBay pwcc_auctions Auction 81167111
12/08/2019 $132 10 362829444575 eBay 4_sharp_corners Auction 43025835
12/08/2019 $18 9 184053779781 eBay mancavesportsaz520 Buy It Now 42928975
12/06/2019 $4 8 254437647595 eBay flashfan3 Auction 01325547
12/02/2019 $120 10 1150 Sirius Sports Auctions Sirius Sports Cards Auction # 251 - Ends 11/29/19 Auction 44273858
12/02/2019 $14 9 1149 Sirius Sports Auctions Sirius Sports Cards Auction # 251 - Ends 11/29/19 Auction 44273855
12/02/2019 $8 8 1148 Sirius Sports Auctions Sirius Sports Cards Auction # 251 - Ends 11/29/19 Auction 44273848
12/01/2019 $122 10 383278590948 eBay 4_sharp_corners Auction 43025828
11/30/2019 $10 9 184049871346 eBay hhnostalgia1 Auction 44209288
11/27/2019 $133 10 352857586962 eBay pwcc_auctions Auction 45095870
11/26/2019 $6 8 143447212930 eBay hoodyscollectibles Auction 44175567
11/26/2019 $3 8 323985967746 eBay allenshourd Auction 44033996
11/25/2019 $9 8.5 174099886813 eBay mnpowersellers Auction 21384762
11/24/2019 $5 8 293336374154 eBay siesta_key Auction 03755816
11/24/2019 $11 8 264533570398 eBay djbriggs2013 Auction 43001195
11/23/2019 $2 8 293334891366 eBay siesta_key Auction 03755815
11/23/2019 $16 9 133237069343 eBay zete Buy It Now 44356180
11/18/2019 $5 8.5 233399104525 eBay rlm1lmm Auction 44137881
11/13/2019 $138 10 352842414224 eBay pwcc_auctions Auction 27310695
11/13/2019 $129 10 143431350644 eBay pwcc_auctions Auction 07103935
11/13/2019 $21 9 143431350642 eBay pwcc_auctions Auction 44290056
11/12/2019 $1 8 254418594067 eBay jasonm9031 Auction 01102432
11/10/2019 $6 8 254406792020 eBay djbriggs2013 Auction 43001193
11/10/2019 $5 8 283663118856 eBay jason-in-athens Auction 02298888
11/07/2019 $18 9 312826884668 eBay jaysace Auction 43389039
11/03/2019 $9 9 333369371436 eBay cusil Auction 07103745
10/31/2019 $153 10 352829773776 eBay pwcc_auctions Auction 24830695
10/31/2019 $12 9 143418588704 eBay pwcc_auctions Auction 40560344
10/27/2019 $20 9 264505684316 eBay markm11110 Auction 04351647
10/23/2019 $15 9 193161803129 eBay ctoben Auction 03490251
10/20/2019 $9 Auth 392482693320 eBay sm_126 Auction 41780135
10/16/2019 $143 10 401913139891 eBay pwcc_auctions Auction 27557008
10/16/2019 $14 9 401913139847 eBay pwcc_auctions Auction 01772059
10/15/2019 $134 10 383200426306 eBay probstein123 Auction 41123632
10/13/2019 $121 10 233362129616 eBay blackforest..abc Auction 08161089
10/07/2019 $15 9 254377426896 eBay unclepatssportscards Auction 08084313
10/03/2019 $12 9 193126070977 eBay kddtoys Auction 31053938
10/03/2019 $6 8 163880984964 eBay the_masters*1 Auction 44281496
10/02/2019 $16 9 174043769272 eBay 3cardstudpoker Auction 27310704
10/02/2019 $2 8 401899984925 eBay sportsworld1986 Auction 03179226
10/02/2019 $13 9 143394048510 eBay dawie_4853 Auction 11711987
09/30/2019 $16 9 174037953792 eBay opc_baseball Buy It Now 42802253
09/30/2019 $3 8 352803148123 eBay sportsworld1986 Auction 03179224
09/30/2019 $18 9 202753217732 eBay drabbie Best Offer 06618058
09/29/2019 $8 8 183966502415 eBay collectorsworld-va Auction 60026097
09/29/2019 $13 8.5 264438091548 eBay 4_sharp_corners Buy It Now 43025826
09/26/2019 $148 10 223667848800 eBay robert_toms Auction 27151987
09/25/2019 $4 8 193110490254 eBay kddtoys Auction 01158005
09/18/2019 $19 9 372767519050 eBay probstein123 Auction 08144359
09/18/2019 $16 9 254356738477 eBay cafenjl Auction 42987372
09/17/2019 $19 9 401875400295 eBay pwcc_auctions Auction 43063403
09/16/2019 $6 8 133166473874 eBay hscauctions Auction 44177865
09/15/2019 $8 8 174024160193 eBay collectorsworld-va Auction 60026098
09/14/2019 $143 10 254355167170 eBay phillytraders Auction 27832539
09/12/2019 $10 9 174023259408 eBay 3cardstudpoker Auction 43001194
09/10/2019 $5 8 254346654086 eBay djbriggs2013 Auction 43001192
09/08/2019 $5 8 264447130586 eBay djbriggs2013 Auction 43001190
09/06/2019 $160 10 183931417634 eBay mojosportscardtraditions Buy It Now 28197391
09/05/2019 $15 9 233326592872 eBay melka*s*ark Auction 04053110
09/05/2019 $9 8 202767423512 eBay mikeandmillette Auction 42353756
09/04/2019 $12 9 174012167453 eBay 3cardstudpoker Auction 27310706
09/02/2019 $16 9 323897731893 eBay tigerbaitsports Auction 11674284
09/01/2019 $8 8 273973221830 eBay jacanddan_collectibles Auction 44281496
09/01/2019 $12 9 223637243982 eBay mahan-ian Auction 31053969
09/01/2019 $19 9 223637243124 eBay mahan-ian Auction 07103932
09/01/2019 $14 9 223637241935 eBay mahan-ian Auction 90501501
09/01/2019 $12 9 223637240469 eBay mahan-ian Auction 04053124
08/29/2019 $11 9 264436281712 eBay djbriggs2013 Auction 43001191
08/29/2019 $5 8 264436271892 eBay djbriggs2013 Auction 43001189
08/28/2019 $12 9 254334555157 eBay djbriggs2013 Auction 43001194
08/26/2019 $21 9 383106854568 eBay probstein123 Auction 42203465
08/25/2019 $14 9 143359628387 eBay den0005-d31xu Auction 31053967
08/25/2019 $12 9 113860583725 eBay brewcrew602 Auction 43247926
08/23/2019 $2 8 312733869078 eBay coresclassics6t25 Auction 43774584
08/21/2019 $8 8 383103543739 eBay probstein123 Auction 01265879
08/20/2019 $20 9 372738111257 eBay probstein123 Auction 08144359
08/20/2019 $10 9 174001699192 eBay 3cardstudpoker Auction 08184691
08/20/2019 $5 8 223622511183 eBay dsmi9321 Auction 05151630
08/18/2019 $11 9 173994746984 eBay bossmanrecords Auction 21274832
08/18/2019 $4 7 173992976650 eBay madfast50 Auction 41806588
08/17/2019 $14 9 254323984365 eBay djbriggs2013 Auction 43001191
08/17/2019 $7 8 254323970070 eBay djbriggs2013 Auction 43001189
08/14/2019 $13 9 173989784073 eBay 3cardstudpoker Auction 11312233
08/11/2019 $15 9 143347294665 eBay den0005-d31xu Auction 11829629
08/10/2019 $17 9 312722182893 eBay coresclassics6t25 Auction 42633528
08/07/2019 $17 9 372727103799 eBay probstein123 Auction 40369721
08/05/2019 $10 9 173986865198 eBay 3cardstudpoker Auction 02450068
08/04/2019 $15 9 113837236799 eBay brewcrew602 Auction 43247928
08/04/2019 $15 9 312715733802 eBay coresclassics6t25 Auction 42633527
07/31/2019 $174 10 401822988713 eBay pwcc_auctions Auction 27388773
07/31/2019 $12 9 173975681332 eBay 3cardstudpoker Auction 31062837
07/30/2019 $129 10 123850422568 eBay redkason Auction 28852911
07/27/2019 $148 10 173934731704 eBay opc_baseball Buy It Now 42802248
07/25/2019 $128 10 153574213960 eBay captainwright5 Auction 07098045
07/24/2019 $135 10 323847147644 eBay 123jacs Buy It Now 27310652
07/22/2019 $16 9 362698937924 eBay probstein123 Auction 26538375
07/21/2019 $136 10 143327034423 eBay pwcc_auctions Auction 25423736
07/21/2019 $16 9 143327034285 eBay pwcc_auctions Auction 41037431
07/21/2019 $9 8 143327034284 eBay pwcc_auctions Auction 21019756
07/21/2019 $15 9 283548540477 eBay pdubber1819 Auction 90382963
07/21/2019 $10 9 173964833987 eBay 3cardstudpoker Auction 31053941
07/16/2019 $6 8 362698561103 eBay tntnorthnj Auction 01162055
07/15/2019 $8 9 273930285298 eBay murray33 Auction 07067398
07/13/2019 $16 8 383036865511 eBay cbiv1979 Auction 41731255
07/11/2019 $13 9 264387501269 eBay rsehlke Auction 07067398
07/11/2019 $100 10 312685988694 eBay saw10thpainf Auction 23408102
07/10/2019 $19 9 153551733576 eBay ajcollectables2014 Auction 11912981
07/07/2019 $112 10 293135225913 eBay buck0015 Auction 07064092
07/01/2019 $22 9 372695799861 eBay probstein123 Auction 21421859
07/01/2019 $12 9 254274482344 eBay gcd8 Auction 08143976
06/30/2019 $125 10 223563490796 eBay mditty11 Auction 27310697
06/30/2019 $14 9 153540136281 eBay (0023) Auction 27310670
06/30/2019 $12 9 173942787535 eBay 3cardstudpoker Auction 40369723
06/27/2019 $8 7 372693192315 eBay probstein123 Auction 43568438
06/24/2019 $118 10 273893774018 eBay wcsports1 Auction 16175881
06/22/2019 $122 10 202710427506 eBay alliance_watches Auction 26777394
06/22/2019 $15 9 312658125872 eBay meste60 Auction 43228087
06/21/2019 $7 8 312659697339 eBay alesi-8777 Auction 02365464
06/21/2019 $10 9 173936788194 eBay 3cardstudpoker Auction 11711987
06/20/2019 $99 10 264360670473 eBay agilleo24 Auction 28317252
06/18/2019 $17 9 352689603951 eBay shoeboxfinds Auction 60039230
06/18/2019 $14 9 323831880661 eBay shoeboxfinds Auction 31543960
06/16/2019 $20 9 143284683335 eBay pwcc_auctions Auction 25037802
06/16/2019 $14 8 401781480780 eBay pwcc_auctions Auction 30313186
06/14/2019 $17 9 401782269672 eBay ljbiggestfan2 Auction 90311108
06/14/2019 $8 8 352681230562 eBay merchandiseliquidations Buy It Now 08143757
06/11/2019 $15 9 233252343798 eBay takebackcontrol2018_5 Auction 08195864
06/09/2019 $8 9 192936988074 eBay jkirk003 Auction 03672837
06/06/2019 $10 9 173918787771 eBay 3cardstudpoker Auction 03672892
06/04/2019 $15 9 352672300642 eBay micovi_78 Buy It Now 42707737
05/31/2019 $10 9 163705139838 eBay nanzash Auction 08144336
05/30/2019 $153 10 143260514165 eBay pwcc_auctions Auction 28852943
05/30/2019 $168 10 143260514164 eBay pwcc_auctions Auction 26707089
05/29/2019 $3 7 202686786896 eBay sloc1219 Auction 11053497
05/28/2019 $14 9 312624018685 eBay joesvintagesportscardsii Auction 31053941
05/28/2019 $13 9 323813552081 eBay joesvintagesportscardsii Auction 11711987
05/28/2019 $13 9 312624018589 eBay joesvintagesportscardsii Auction 31062837
05/28/2019 $14 9 312624018820 eBay joesvintagesportscardsii Auction 31062843
05/28/2019 $15 9 323813552161 eBay joesvintagesportscardsii Auction 02337458
05/28/2019 $17 9 312624018721 eBay joesvintagesportscardsii Auction 20349421
05/28/2019 $17 9 312624018672 eBay joesvintagesportscardsii Auction 05436797
05/28/2019 $13 9 323813552076 eBay joesvintagesportscardsii Auction 40369723
05/28/2019 $25 9 401734604293 eBay rman444 Buy It Now 41622265
05/27/2019 $10 9 173915855440 eBay 3cardstudpoker Auction 42473465
05/26/2019 $10 9 173908114382 eBay 3cardstudpoker Auction 02540283
05/25/2019 $7 8 273847099602 eBay art_books_cards_coins_more Auction 11008417
05/23/2019 $4 7 233227171593 eBay bob8359 Auction 42971893
05/23/2019 $16 9 143245716287 eBay themessiahjames Buy It Now 27388772
05/21/2019 $17 9 382953820557 eBay probstein123 Auction 42972918
05/20/2019 $25 9 143251049435 eBay stloubrown Auction 42900789
05/19/2019 $6 8 133050474855 eBay isaak80 Auction 04408617
05/15/2019 $128 10 352657016066 eBay pwcc_auctions Auction 27310680
05/15/2019 $117 10 401761930664 eBay pwcc_auctions Auction 26995233
05/15/2019 $25 9 143240494924 eBay pwcc_auctions Auction 81167178
05/12/2019 $13 9 312574041355 eBay joesvintagesportscardsii Buy It Now 11712234
05/12/2019 $11 9 273834578713 eBay ajpops2 Auction 40629095
05/10/2019 $13 9 312574041170 eBay joesvintagesportscardsii Buy It Now 01205447
05/05/2019 $8 8 362527397711 eBay flipnj Buy It Now 23301235
05/04/2019 $136 10 133035466693 eBay secondwindcpap Auction 26995231
04/30/2019 $14 9 153459345874 eBay natben35 Best Offer 42987372
04/30/2019 $13 9 123745126053 eBay cardsandcoins Auction 42590265
04/30/2019 $6 8 123745125521 eBay cardsandcoins Auction 42590264
04/25/2019 $13 9 273815294787 eBay thepackratking Auction 40563430
04/25/2019 $13 9 323779764388 eBay joesvintagesportscardsii Buy It Now 90501387
04/20/2019 $19 10 323783966689 eBay mjstewart00 Auction 42580449
04/19/2019 $111 10 352645126412 eBay merchandiseliquidations Auction 90325596
04/17/2019 $10 8 382887687769 eBay merchandiseliquidations Buy It Now 08144192
04/15/2019 $7 7 173873288189 eBay jmm3962254 Auction 27390016
04/14/2019 $129 10 401743479482 eBay pwcc_auctions Auction 81800317
04/14/2019 $12 9 1170 Sirius Sports Auctions Sirius Sports Cards Auction # 235 - Ends 4/11/19 Auction 40310999
04/07/2019 $16 9 192876659120 eBay jaysace Auction 42393328
04/01/2019 $145 10 303040083865 eBay imabe2 Best Offer 22203859
03/30/2019 $19 9 223458461032 eBay showtime3ndl Auction 27283851
03/29/2019 $9 8 153425497638 eBay antmora93 Auction 02218244
03/28/2019 $11 9 661 Sirius Sports Auctions Sirius Sports Cards Auction # 234 - Ends 3/28/19 Auction 21373650
03/25/2019 $15 9 312534261958 eBay jaysace Auction 42095028
03/25/2019 $6 8 143177776862 eBay dbn077 Auction 04479619
03/25/2019 $15 9 293015635278 eBay donanator Auction 25423735
03/24/2019 $1 7 202625190378 eBay gradedcardman Auction 41402122
03/24/2019 $99 10 202625299255 eBay 2015_figh Auction 60026111
03/23/2019 $16 9 401731098603 eBay thekid90 Auction 11912981
03/20/2019 $16 9 254162762092 eBay bmyers6uor Auction 31586044
03/17/2019 $182 10 401724101797 eBay pwcc_auctions Auction 27388774
03/17/2019 $4 8 264233966788 eBay dcloud96 Auction 41181756
03/17/2019 $13 9 264233775757 eBay smittyssportscards Auction 12245810
03/16/2019 $10 9 163596020690 eBay toxicapp-40 Auction 01536207
03/14/2019 $13 9 312519832787 eBay epet8575 Auction 41541277
03/11/2019 $108 10 382815504645 eBay probstein123 Auction 27151987
03/11/2019 $109 10 192825122002 eBay whatyme Buy It Now 40369735
03/09/2019 $11 9 233152895773 eBay cardscientist Auction 11585105
03/04/2019 $16 9 312381108279 eBay jaysace Auction 42095027
02/27/2019 $7 8 362562690485 eBay probstein123 Auction 40904181
02/27/2019 $89 10 163560334232 eBay shackem Auction 28585060
02/24/2019 $15 9 132957028559 eBay estate.liquidator Auction 01674043
02/24/2019 $13 9 132957028552 eBay estate.liquidator Auction 01674043
02/22/2019 $9 8.5 132954890388 eBay stingray87 Auction 18532821
02/20/2019 $7 8 123639791153 eBay mtnlovers4 Auction 40619308
02/19/2019 $103 10 362555966417 eBay probstein123 Auction 27151985
02/18/2019 $13 9 352589621733 eBay pwcc_auctions Auction 12164514
02/17/2019 $110 10 362524943621 eBay 4_sharp_corners Buy It Now 42387593
02/11/2019 $110 10 192815377807 eBay jaysace Auction 28576816
02/11/2019 $12 9 173777537779 eBay robk0215 Auction 09081415
02/10/2019 $15 9 392020135085 eBay sportsnutnj Buy It Now 08177764
02/07/2019 $15 9 183664647634 eBay mintcards4u Buy It Now 42068400
02/06/2019 $5 8 382747134313 eBay peal7878 Auction 11943407
02/02/2019 $7 8.5 132931534628 eBay stingray87 Auction 18532821
01/31/2019 $8 8 382748566900 eBay probstein123 Auction 40904180
01/30/2019 $3 Auth 312415086091 eBay rinorob Best Offer 41780133
01/29/2019 $14 9 183620694856 eBay mintcards4u Buy It Now 42068401
01/29/2019 $17 9 264157716409 eBay glaus1009 Auction 24642879
01/28/2019 $90 10 264155932872 eBay ccc6u62 Auction 30527050
01/27/2019 $8 7 392220107475 eBay goodflix Auction 28371663
01/27/2019 $14 9 1126 Sirius Sports Auctions Sirius Sports Cards Auction # 255 - Ends 1/23/20 Auction 44273853
01/27/2019 $8 8 1125 Sirius Sports Auctions Sirius Sports Cards Auction # 255 - Ends 1/23/20 Auction 44273851
01/24/2019 $2 8 333027975361 eBay buckhunter25bigmac Auction 04110532
01/23/2019 $13 9 352572276824 eBay micovi_78 Buy It Now 41671679
01/23/2019 $13 9 333020496445 eBay gootsgoods Best Offer 81192296
01/23/2019 $10 8 352527791520 eBay budssportscardsfl Buy It Now 02435191
01/22/2019 $16 9 323651225799 eBay amac2244nj Auction 01274143
01/22/2019 $105 10 273649852582 eBay allam1970 Buy It Now 18374903
01/22/2019 $110 10 223185573115 eBay 123jacs Buy It Now 27310654
01/20/2019 $95 10 264134981723 eBay kozi007 Auction 09112844
01/17/2019 $113 10 401681490605 eBay pwcc_auctions Auction 27388773
01/15/2019 $14 9 254035401614 eBay flsportscards82 Best Offer 81167253
01/15/2019 $110 10 323322431031 eBay 123jacs Buy It Now 27310646
01/14/2019 $19 9 153337483002 eBay jefkelle3 Buy It Now 41746681
01/14/2019 $20 9 303017677492 eBay allstarcardstore Best Offer 03074223
01/14/2019 $12 9 233084785324 eBay 11bgruntoif06 Auction 81545485
01/10/2019 $13 10 113543858087 eBay ratblack5 Auction 24830529
01/06/2019 $10 8 202553934016 eBay ezdsbaseballcards Buy It Now 26988881
01/06/2019 $15 9 192775642862 eBay jaysace Auction 42095029
01/06/2019 $12 8.5 153321849641 eBay peal7878 Auction 42068070
01/03/2019 $98 10 382692049162 eBay probstein123 Auction 42277826
01/02/2019 $21 9 223277872290 eBay ryz8601 Buy It Now 28852954
01/01/2019 $18 9 233044386206 eBay ct_trading_card_connection_2005 Buy It Now 01844110
01/01/2019 $15 9 382699038776 eBay 4_sharp_corners Buy It Now 42068403
12/31/2018 $15 9 392117003038 eBay bulpencards Buy It Now 40797323
12/30/2018 $4 8 223296421079 eBay gobravescj10 Auction 01187007
12/28/2018 $120 10 312398756498 eBay jaysace Buy It Now 42095026
12/27/2018 $15 9 352547747970 eBay micovi_78 Buy It Now 41671677
12/27/2018 $7 8 132894997602 eBay stingray87 Auction 12102591
12/25/2018 $12 9 254035551108 eBay flsportscards82 Best Offer 60039255
12/22/2018 $100 10 352547747995 eBay micovi_78 Buy It Now 41671678
12/21/2018 $14 9 254029141426 eBay silkysmooth916 Best Offer 28852936
12/20/2018 $12 9 372534773580 eBay probstein123 Auction 16550977
12/15/2018 $10 9 273608344985 eBay delmer3 Best Offer 08180066
12/11/2018 $90 10 382657677090 eBay probstein123 Auction 31866947
12/11/2018 $13 9 352537783733 eBay markman Auction 02537501
12/07/2018 $4 8 264048586413 eBay dcloud96 Best Offer 41181746
12/02/2018 $13 9 183554402155 eBay gemrookies4u Auction 81257749
11/11/2018 $14 9 222690236877 eBay bulpencards Buy It Now 25749453
11/06/2018 $90 10 292796139356 eBay cals3081 Auction 28852934
10/16/2018 $4 8 323494648514 eBay monti_lis Auction 01807588
10/16/2018 $4 8 323494609695 eBay monti_lis Auction 04380282
09/25/2018 $9 8 382311266610 eBay sjosing Buy It Now 27247843
09/22/2018 $95 10 332798228014 eBay fox_sports_cards Buy It Now 81257712
09/16/2018 $5 8 382560874253 eBay probstein123 Auction 41060997
09/16/2018 $101 10 142929720712 eBay pwcc_auctions Auction 20564889
09/16/2018 $9 8 401595093352 eBay pwcc_auctions Auction 24474526
08/31/2018 $110 10 202411003748 eBay zorge-zorge Best Offer 28463161
08/30/2018 $5 9 113217441879 eBay gmb.sports20166 Auction 27245475
08/28/2018 $100 10 382504929284 eBay 4_sharp_corners Buy It Now 28852910
08/27/2018 $128 10 123317418712 eBay dennywalling Auction 26507060
08/26/2018 $13 9 123319946771 eBay jatto31 Auction 27422902
08/24/2018 $85 10 323371217214 eBay galactichobbyusa Buy It Now 01772062
08/21/2018 $9 9 132749504040 eBay ccelvis Auction 09086406
08/21/2018 $4 8 263879157008 eBay bigglock Auction 01526882
08/19/2018 $14 9 263863536078 eBay yerhos Buy It Now 24975722
08/18/2018 $13 9 263861097492 eBay darre-scari Buy It Now 40998312
08/17/2018 $9 9 123303677292 eBay coaster_rider Auction 81699649
08/17/2018 $10 8 392101688600 eBay aldogg74 Best Offer 07053860
08/17/2018 $92 10 173423418453 eBay grayhawkgolf Buy It Now 17388077
08/16/2018 $89 10 292672485639 eBay cardagents Best Offer 40938899
08/16/2018 $97 10 142896507155 eBay pwcc_auctions Auction 41007455
08/13/2018 $46 9 332738307369 eBay hooptswede Auction 02459621
08/05/2018 $110 10 312202673405 eBay jaysace Auction 28576815
08/04/2018 $19 9 253656041007 eBay graded_psa_cards Buy It Now 50085182
08/04/2018 $85 10 223080642106 eBay 20mtims01 Best Offer 90325596
07/31/2018 $102 10 401570757117 eBay pwcc_auctions Auction 40877152
07/31/2018 $13 9 173427973714 eBay psamint9 Auction 30695263
07/29/2018 $21 9 392087180539 eBay bengelkes Auction 40804706
07/29/2018 $13 9 382516381482 eBay 4_sharp_corners Buy It Now 28852933
07/18/2018 $105 10 223045627278 eBay 20mtims01 Best Offer 90325596
07/17/2018 $101 10 362382561803 eBay probstein123 Auction 26995237
07/16/2018 $107 10 323334340898 eBay baseballfan10 Auction 81167127
07/14/2018 $89 10 332709702908 eBay blackforest..abc Auction 81800332
07/13/2018 $1 7 173398190879 eBay jkisnum1 Auction 23124477
07/13/2018 $12 9 192593402136 eBay banditgreen1866 Auction 01579416
07/12/2018 $8 8 183289346625 eBay syaelbelle Buy It Now 11920677
07/12/2018 $90 10 401561826455 eBay pwcc_auctions Auction 26995236
07/10/2018 $95 10 323328483317 eBay baseballfan10 Best Offer 81866358
07/08/2018 $8 8 253536259081 eBay graded_psa_cards Buy It Now 28545711
07/08/2018 $13 9 362373762627 eBay 4_sharp_corners Buy It Now 41147626
07/03/2018 $18 9 192581727929 eBay jaysace Auction 40799542
07/01/2018 $12 9 173379461986 eBay pwash2013 Auction 90418312
07/01/2018 $13 9 253477179999 eBay myextracards Buy It Now 02337420
06/29/2018 $94 10 123204741481 eBay galaxy_traveller Auction 40560324
06/29/2018 $13 9 263779035977 eBay 4_sharp_corners Buy It Now 28852926
06/28/2018 $7 8 173345225658 eBay beverlypd14 Buy It Now 12107414
06/27/2018 $80 10 382497290845 eBay probstein123 Auction 20821752
06/27/2018 $89 10 362360901735 eBay probstein123 Auction 22911924
06/27/2018 $91 10 372342503343 eBay probstein123 Auction 26995237
06/27/2018 $89 10 382497291117 eBay probstein123 Auction 26507060
06/27/2018 $90 10 232822549837 eBay blackforest..abc Best Offer 04657336
06/27/2018 $79 10 382497344330 eBay probstein123 Auction 81866358
06/27/2018 $77 10 153069368354 eBay leticiromer_39 Auction 04626495
06/22/2018 $13 9 362358417226 eBay 4_sharp_corners Buy It Now 28852923
06/21/2018 $93 10 232812285766 eBay metrowax Best Offer 21034282
06/20/2018 $14 9 123189250786 eBay arrowheadpride29 Auction 03605952
06/19/2018 $7 8 372333498402 eBay probstein123 Auction 21463660
06/19/2018 $16 9 362351649796 eBay probstein123 Auction 21463659
06/19/2018 $82 10 362351504678 eBay rcsportscollectible Auction 09069738
06/14/2018 $13 9 362350307128 eBay 4_sharp_corners Buy It Now 28852924
06/14/2018 $108 10 352372219112 eBay pwcc_auctions Auction 04626495
06/12/2018 $16 9 382482707163 eBay probstein123 Auction 03605992
06/09/2018 $3 8 142818636507 eBay jp*3127 Auction 27255609
05/30/2018 $94 10 332663731472 eBay metrowax Best Offer 20373118
05/28/2018 $97 10 362323578880 eBay probstein123 Auction 81800332
05/28/2018 $93 10 372309593216 eBay probstein123 Auction 04657336
05/28/2018 $93 10 382466504770 eBay probstein123 Auction 81800317
05/27/2018 $6 9 222986265479 eBay pback18 Auction 03088988
05/25/2018 $9 9 372292357562 eBay twincitiessportscards2510 Best Offer 81190816
05/24/2018 $12 9 372308647655 eBay probstein123 Auction 40763323
05/23/2018 $20 9 323265859343 eBay ct_trading_card_connection_2005 Buy It Now 19229956
05/23/2018 $15 9 302738047772 eBay quinball Auction 30976847
05/18/2018 $15 9 222944336108 eBay graded_psa_cards Buy It Now 28545707
05/15/2018 $89 10 142783467045 eBay pwcc_auctions Auction 28598150
05/15/2018 $23 9 142783467043 eBay pwcc_auctions Auction 27775907
05/09/2018 $91 10 382451916897 eBay 4_sharp_corners Auction 28585052
05/06/2018 $11 9 222955712183 eBay teamchevelle Auction 27854948
05/04/2018 $9 9 253564688632 eBay robih33 Buy It Now 90418309
05/03/2018 $13 9 263638845715 eBay lvjce1 Auction 28892199
05/02/2018 $98 10 382445739223 eBay 4_sharp_corners Auction 28585053
04/28/2018 $7 8 263625551237 eBay pbear98 Auction 03434833
04/25/2018 $91 10 263616622819 eBay 4_sharp_corners Auction 28585055
04/22/2018 $13 9 253490159055 eBay graded_psa_cards Buy It Now 50085214
04/18/2018 $103 10 263601071145 eBay 4_sharp_corners Auction 28585054
04/17/2018 $92 10 401518991518 eBay pwcc_auctions Auction 05512712
04/17/2018 $11 8 222571706775 eBay 123jacs Buy It Now 27310699
04/15/2018 $11 9 332591506229 eBay theduckfan3 Best Offer 27824809
04/15/2018 $14 9 323198280835 eBay myhonorstar Buy It Now 30400746
04/13/2018 $13 9 382432084737 eBay fmgametime Auction 28838753
04/12/2018 $13 9 392014126254 eBay bigboydsportscards3 Auction 28463163
04/08/2018 $15 9 392009845446 eBay bigboydsportscards3 Auction 28463166
04/08/2018 $11 9 222897904668 eBay ksl_collectibles Auction 27893134
04/08/2018 $13 9 312100840113 eBay raykasa Auction 07112803
04/08/2018 $12 9 323183084236 eBay baseballfan10 Auction 08144217
04/08/2018 $15 9 173252448738 eBay gators573pdy Buy It Now 28768566
04/07/2018 $9 8 173236695954 eBay 88horsepower Buy It Now 28322301
04/04/2018 $91 10 263574902287 eBay 2011taylorchicowheatlin Auction 26995236
04/04/2018 $9 9 183151531013 eBay bravesfanbaseballcards Auction 26118434
04/02/2018 $6 8 202272431955 eBay tntnorthnj Auction 06337814
04/01/2018 $3 5 112892734324 eBay bigsteve37 Auction 28937759
04/01/2018 $114 10 263578066206 eBay 4_sharp_corners Buy It Now 28836851
04/01/2018 $13 9 382399063424 eBay marketplacessi Buy It Now 08181061
03/31/2018 $8 8 323181428434 eBay eswolf2015 Best Offer 11748033
03/27/2018 $15 9 392004274011 eBay myhonorstar Buy It Now 30400746
03/26/2018 $118 10 222787785699 eBay www.buynicecards Best Offer 81800325
03/24/2018 $3 8 183132916247 eBay snowje Auction 08087252
03/24/2018 $11 9 323151239473 eBay baseballfan10 Auction 01711155
03/22/2018 $85 10 362272570974 eBay lan.3 Auction 27832542
03/21/2018 $6 8 162946456524 eBay hitting5offthetee Auction 28201328
03/16/2018 $9 8 391946610883 eBay bulpencards Buy It Now 28169089
03/15/2018 $10 8 401502848149 eBay pwcc_auctions Auction 03653784
03/15/2018 $13 9 382411461419 eBay albj1259 Best Offer 26520541
03/09/2018 $114 10 382388960722 eBay 4_sharp_corners Buy It Now 28585050
03/09/2018 $93 10 253463344960 eBay p21barker Auction 24739512
03/08/2018 $12 9 362261934068 eBay marketplacessi Buy It Now 08181049
03/05/2018 $18 9 372239655270 eBay jhaines12 Buy It Now 05110742
02/25/2018 $15 9 323084558866 eBay myhonorstar Buy It Now 30400746
02/23/2018 $100 10 222853716275 eBay bulpencards Buy It Now 28432383
02/21/2018 $9 9 323076060121 eBay jspence21 Auction 02374628
02/18/2018 $15 9 391979428447 eBay myhonorstar Buy It Now 30400746
02/17/2018 $11 9 263489422809 eBay coresclassics6t25 Auction 28616281
02/15/2018 $11 9 222832978754 eBay jasoagne-2 Auction 30761613
02/15/2018 $14 9 263494582660 eBay 4_sharp_corners Buy It Now 28759389
02/12/2018 $13 9 382377034180 eBay 4_sharp_corners Buy It Now 28759388
02/12/2018 $90 10 273057384943 eBay graciemay0916 Best Offer 26995231
02/11/2018 $103 10 401486532343 eBay pwcc_auctions Auction 18917760
02/11/2018 $16 9 142676444073 eBay pwcc_auctions Auction 03088987
02/05/2018 $12 9 382360988048 eBay probstein123 Auction 03605939
02/05/2018 $82 10 173135285970 eBay joboy4321 Best Offer 24830703
02/01/2018 $10 9 372204962404 eBay anthonyg1760 Auction 05103602
01/31/2018 $17 9 273040209656 eBay ewaeri5 Auction 27394112
01/29/2018 $103 10 292420487870 eBay mattandjoy2000 Auction 50061594
01/29/2018 $7 8 192417652707 eBay branoah0917 Buy It Now 27971156
01/29/2018 $19 9 322580229919 eBay 123jacs Buy It Now 27310693
01/29/2018 $11 9 372089919393 eBay cacardshark Buy It Now 02478092
01/24/2018 $119 10 382338531039 eBay 4_sharp_corners Buy It Now 27832546
01/22/2018 $5 8 322901018609 eBay petershop74 Best Offer 28114273
01/20/2018 $11 9 152874205910 eBay store7007 Best Offer 21373651
01/18/2018 $7 8 152867352305 eBay coingirlcoins Best Offer 30312874
01/17/2018 $11 9 332394821632 eBay cacardshark Buy It Now 01844110
01/17/2018 $11 9 332394824528 eBay cacardshark Buy It Now 40560322
01/12/2018 $12 9 253311771915 eBay cardboardgoldinvestments Best Offer 28268381
01/12/2018 $14 9 253089126724 eBay myextracards Buy It Now 08155476
01/08/2018 $125 10 152855930608 eBay store7007 Best Offer 26995230
01/06/2018 $119 10 362202327367 eBay 4_sharp_corners Buy It Now 27832544
12/31/2017 $8 7 182941150796 eBay beverlypd14 Buy It Now 27393378
12/30/2017 $11 10 162817491763 eBay trash2treasure1963 Auction 27577082
12/29/2017 $119 10 263407000632 eBay 4_sharp_corners Buy It Now 27832543
12/28/2017 $7 9 182976439046 eBay giantfan2007! Auction 27275452
12/27/2017 $8 8 253322621595 eBay ev201315 Auction 02484021
12/26/2017 $119 10 382303921392 eBay 4_sharp_corners Buy It Now 27832542
12/25/2017 $100 10 272984516305 eBay ewaeri5 Best Offer 26755085
12/24/2017 $120 10 142615304833 eBay dpears34 Buy It Now 27310682
12/24/2017 $10 9 372089918312 eBay cacardshark Buy It Now 03490249
12/22/2017 $11 9 362116201699 eBay cacardshark Buy It Now 04652864
12/21/2017 $10 9 152828915841 eBay brogcryst Auction 90011238
12/21/2017 $9 9 192397623210 eBay rdgrisa Auction 81699649
12/20/2017 $25 9 122854662246 eBay bullsharks Auction 01262798
12/18/2017 $10 8 322935379890 eBay sickcardcompany Auction 28322301
12/17/2017 $9 9 362178445227 eBay allstar-cards Auction 27404924
12/08/2017 $10 9 372154221357 eBay donscards7 Auction 04338468
12/07/2017 $11 9 192390530942 eBay branoah0917 Buy It Now 27971155
12/04/2017 $6 8 202127338968 eBay packerpete04 Auction 27920732
12/03/2017 $2 7 322900400987 eBay petershop74 Auction 28114271
12/02/2017 $8 8 292355130745 eBay jbos14 Best Offer 27930364
12/02/2017 $8 9 222740386953 eBay waynkin-9 Buy It Now 03232714
12/01/2017 $130 10 152784849572 eBay leperick7 Buy It Now 19791257
11/26/2017 $3 8 162756199935 eBay second_cousin_records Auction 20437375
11/26/2017 $11 9 372089920108 eBay cacardshark Buy It Now 04622713
11/24/2017 $3 8 202115636986 eBay kcp93 Auction 30494674
11/24/2017 $9 9 372139332575 eBay donscards7 Auction 04338468
11/19/2017 $8 9 192364424082 eBay vaultman Auction 27613872
11/18/2017 $10 9 332394822564 eBay cacardshark Buy It Now 05402431
11/17/2017 $18 9 112645917907 eBay auctionworld101 Buy It Now 06151376
11/17/2017 $10 9 362116202839 eBay cacardshark Buy It Now 04652862
11/17/2017 $17 9 222644896655 eBay 123jacs Buy It Now 27682533
11/17/2017 $8 8 322630733472 eBay creativeimagepromotions Best Offer 02337459
11/16/2017 $99 10 142569051666 eBay pwcc_auctions Auction 24739512
11/15/2017 $2 8 (OC) 222712217187 eBay bushwackers360 Auction 30961633
11/13/2017 $8 9 142568655400 eBay braidaboy Auction 08143985
11/11/2017 $15 9 382264534694 eBay 4_sharp_corners Buy It Now 27422893
11/10/2017 $11 9 332394825194 eBay cacardshark Buy It Now 04631607
11/10/2017 $16 9 322745097209 eBay 123jacs Buy It Now 27682522
11/09/2017 $11 9 382228207487 eBay joepawnmn Best Offer 05163289
11/09/2017 $5 8 1037 Sirius Sports Auctions Sirius Sports Cards Auction # 198 - Ends 11/9/17 Auction 27755845
11/08/2017 $16 9 372123599011 eBay probstein123 Auction 27739436
11/08/2017 $15 9 362146984641 eBay probstein123 Auction 27739435
11/06/2017 $1 8 152769569736 eBay you-gotta-steal Auction 01839973
11/01/2017 $14 9 362140932951 eBay probstein123 Auction 27739437
10/31/2017 $104 10 142550184092 eBay rookiesonly99 Auction 60039258
10/31/2017 $105 10 192330520962 eBay bluesparkexchange Best Offer 21319058
10/29/2017 $5 9 352191457023 eBay ingham5454 Auction 09086805
10/29/2017 $5 8 232514243203 eBay amandkosso_0 Buy It Now 02531742
10/25/2017 $129 10 222644144491 eBay 123jacs Buy It Now 27682532
10/21/2017 $125 10 222644143273 eBay 123jacs Buy It Now 27682528
10/21/2017 $6 8 391904807537 eBay npjc95 Auction 31062834
10/21/2017 $98 10 192333994121 eBay jerryd27x Auction 26165101
10/17/2017 $11 9 372089840380 eBay cacardshark Buy It Now 81530094
10/16/2017 $10 9 372100168430 eBay probstein123 Auction 20569186
10/16/2017 $119 10 401418573213 eBay pwcc_auctions Auction 27735494
10/16/2017 $11 9 401418572893 eBay pwcc_auctions Auction 27125363
10/16/2017 $4 7 401418572889 eBay pwcc_auctions Auction 27786733
10/13/2017 $7 8 272873128689 eBay npjc95 Auction 03513681
10/12/2017 $16 9 332404986394 eBay jmgsportscollectibles Auction 81545484
10/11/2017 $10 9 222667687260 eBay bigred_cards Auction 27342829
10/11/2017 $12 9 122741748877 eBay diamondcardboard Buy It Now 40560386
10/06/2017 $9 9 282677353997 eBay mju779ik Auction 30926117
10/04/2017 $94 10 132343559650 eBay rookiesonly99 Auction 60039258
10/03/2017 $8 9 162687640106 eBay trash2treasure1963 Auction 90100745
10/02/2017 $10 8 182778989492 eBay beverlypd14 Buy It Now 12107414
09/30/2017 $100 10 322783037597 eBay hudson23042013 Auction 24635515
09/30/2017 $6 8 272856069945 eBay npjc95 Auction 60039207
09/30/2017 $3 8 162688759265 eBay eyeinsky Auction 26010649
09/28/2017 $2 8 401409321889 eBay easymoney31 Auction 12107414
09/27/2017 $15 9 362109340472 eBay probstein123 Auction 27893134
09/25/2017 $13 9 372076701794 eBay probstein123 Auction 27532025
09/24/2017 $13 9 192310929979 eBay vaultman Auction 27613873
09/23/2017 $103 10 232490747581 eBay blackforest..abc Auction 81800321
09/23/2017 $2 8 272846500343 eBay npjc95 Auction 30986454
09/23/2017 $135 10 222623063236 eBay 123jacs Buy It Now 27310698
09/22/2017 $4 8 391886605717 eBay npjc95 Auction 11712213
09/17/2017 $101 10 352160997784 eBay pwcc_auctions Auction 27577082
09/17/2017 $1 8 272838380546 eBay npjc95 Auction 04472394
09/16/2017 $9 8 272837126266 eBay npjc95 Auction 31053911
09/15/2017 $1 8 272835689603 eBay npjc95 Auction 12508760
09/15/2017 $7 8 272832724339 eBay jhickster91 Buy It Now 01738811
09/13/2017 $132 10 372068135557 eBay probstein123 Auction 27381319
09/12/2017 $11 9 372067534651 eBay probstein123 Auction 27613623
09/12/2017 $10 9 282643421749 eBay vanderwt Auction 01262773
09/10/2017 $2 8 272828664426 eBay npjc95 Auction 31053909
09/07/2017 $5 8 391875212479 eBay npjc95 Auction 81190853
09/05/2017 $5 8 372060173637 eBay probstein123 Auction 40318527
09/05/2017 $14 9 192298239701 eBay oaktowngems Buy It Now 27232385
09/04/2017 $14 9 282638606224 eBay shop5109 Buy It Now 08143770
09/01/2017 $7 8 192289372384 eBay theorderguy Buy It Now 40215195
08/29/2017 $113 10 352144775660 eBay pwcc_auctions Auction 27557008
08/29/2017 $11 9 401386904330 eBay pwcc_auctions Auction 27438544
08/25/2017 $20 9 232129621563 eBay comc_consignment Buy It Now 81167187
08/24/2017 $129 10 322676580417 eBay 123jacs Buy It Now 27310697
08/23/2017 $124 10 192278304489 eBay jlinto Auction 04448420
08/23/2017 $125 10 372046963066 eBay cincy_celts Buy It Now 20545777
08/22/2017 $115 10 162640843682 eBay hjcollect Best Offer 04657341
08/20/2017 $3 9 253097572991 eBay jablaik Auction 18507458
08/20/2017 $5 8 232456516408 eBay benni40 Best Offer 27038672
08/18/2017 $8 9 182714285531 eBay sprtscardsrus Best Offer 01274143
08/16/2017 $124 10 352134469253 eBay pwcc_auctions Auction 27438545
08/16/2017 $12 9 142468175775 eBay pwcc_auctions Auction 27421783
08/13/2017 $3 8 172810386056 eBay jasme11 Auction 01607948
08/11/2017 $13 9 263129558151 eBay benni40 Auction 27038674
08/09/2017 $115 10 362058852643 eBay probstein123 Auction 27585679
08/06/2017 $6 8 352130712483 eBay tshil Auction 12107414
08/03/2017 $14 9 222593382747 eBay bulpencards Buy It Now 27591284
07/31/2017 $15 8.5 222571703210 eBay 123jacs Buy It Now 27310669
07/30/2017 $6 8 263103772629 eBay carib_nut Auction 27352170
07/27/2017 $12 9 132270161709 eBay bigskysc Auction 27332481
07/25/2017 $7 5 182680958588 eBay beverlypd14 Buy It Now 27393374
07/24/2017 $17 9 372012647594 eBay probstein123 Auction 03366265
07/24/2017 $119 10 401365648951 eBay pwcc_auctions Auction 27334454
07/24/2017 $11 9 401365648788 eBay pwcc_auctions Auction 27351154
07/23/2017 $12 9 272764641031 eBay ewaeri5 Auction 27394112
07/21/2017 $15 9 263096584823 eBay 4_sharp_corners Buy It Now 27422889
07/19/2017 $14 9 362036596283 eBay probstein123 Auction 27585637
07/18/2017 $15 9 362041943122 eBay 4_sharp_corners Buy It Now 27422888
07/17/2017 $14 9 362036757362 eBay probstein123 Auction 27585636
07/17/2017 $17 9 222571693008 eBay 123jacs Buy It Now 27310696
07/15/2017 $129 10 322580224808 eBay 123jacs Buy It Now 27310686
07/12/2017 $113 10 352103786047 eBay pwcc_auctions Auction 50061594
07/12/2017 $11 9 401358361079 eBay pwcc_auctions Auction 27351153
07/12/2017 $10 9 382152318617 eBay probstein123 Auction 50085185
07/11/2017 $9 9 253031738697 eBay bacollectibles Auction 01543461
07/07/2017 $10 8 222571707960 eBay 123jacs Buy It Now 27310678
07/07/2017 $125 10 322580223187 eBay 123jacs Buy It Now 27310684
07/05/2017 $8 9 253024591550 eBay jasonm9031 Auction 04354277
07/05/2017 $119 10 222571686554 eBay 123jacs Buy It Now 27310682
07/05/2017 $120 10 272740188317 eBay waxpackcity Buy It Now 04448410
07/05/2017 $120 10 272740188310 eBay waxpackcity Buy It Now 81009460
07/04/2017 $6 8.5 201966988112 eBay packerpete04 Auction 26893998
06/30/2017 $13 9 132237520892 eBay hotrookies57 Auction 11674284
06/30/2017 $3 8 152593641690 eBay justballin3 Auction 17373290
06/29/2017 $10 8 112288991665 eBay colielynn11 Best Offer 11008430
06/29/2017 $15 9 362022009465 eBay sportschampioncards Buy It Now 05473168
06/29/2017 $10 9 282505307501 eBay le_hay2 Best Offer 07068636
06/28/2017 $112 10 263053189284 eBay benni40 Auction 27038676
06/28/2017 $11 9 263053189277 eBay benni40 Auction 27038671
06/28/2017 $12 9 232384236428 eBay benni40 Auction 27038675
06/28/2017 $10 9 232384236432 eBay benni40 Auction 27038678
06/27/2017 $115 10 222552897001 eBay byergo Auction 24635515
06/26/2017 $7 8 262916617348 eBay niel1955 Buy It Now 90328163
06/25/2017 $118 10 172737788033 eBay radar22 Auction 08156597
06/23/2017 $137 10 302352965252 eBay 9999rbush Buy It Now 27472349
06/23/2017 $15 9 262952024383 eBay darre-scari Buy It Now 27289333
06/22/2017 $103 10 142412971896 eBay pwcc_auctions Auction 04448410
06/22/2017 $97 10 401346108417 eBay pwcc_auctions Auction 81009460
06/22/2017 $9 9 904 Sirius Sports Auctions Sirius Sports Cards Auction # 188 - Ends 6/22/17 Auction 27285458
06/19/2017 $11 9 282526145040 eBay mju779ik Auction 30926129
06/16/2017 $13 9 232368893992 eBay benni40 Auction 27038674
06/16/2017 $5 8 232368894003 eBay benni40 Auction 27038672
06/15/2017 $120 10 382121108315 eBay probstein123 Auction 27266531
06/15/2017 $12 9 222541414441 eBay skeetshoo Best Offer 24333700
06/15/2017 $16 9 172731340756 eBay psamint9 Best Offer 24975722
06/13/2017 $14 9 201948181109 eBay sagehen93 Auction 24750016
06/12/2017 $106 10 352076972224 eBay pwcc_auctions Auction 60039258
06/12/2017 $118 10 401339808293 eBay pwcc_auctions Auction 06347966
06/12/2017 $6 8 142402771418 eBay pwcc_auctions Auction 27131418
06/04/2017 $17 9 361990016033 eBay probstein123 Auction 27275452
06/04/2017 $5 8 282492651744 eBay kosportsandtrading Auction 12107416
06/04/2017 $140 10 232354415081 eBay benni40 Auction 27038677
06/04/2017 $14 9 232354408612 eBay benni40 Auction 27038673
06/04/2017 $5 8 232354391376 eBay benni40 Auction 27038679
06/04/2017 $5 8 232354389238 eBay benni40 Auction 27038670
06/03/2017 $1 8 222523395659 eBay kosportsandtrading Auction 12107414
05/31/2017 $3 8 222523365363 eBay kosportsandtrading Auction 12107415
05/31/2017 $131 10 172693620007 eBay radar22 Auction 07072868
05/28/2017 $135 10 112421829640 eBay francuoc0 Best Offer 26770065
05/27/2017 $150 10 332209698996 eBay capitalties Best Offer 11764518
05/25/2017 $144 10 142384143810 eBay pwcc_auctions Auction 27116021
05/22/2017 $10 9 262987426132 eBay 76collector Auction 27219601
05/22/2017 $1 8 262987425043 eBay 76collector Auction 27219600
05/20/2017 $20 9 172644730867 eBay gmscheb5 Buy It Now 21169231
05/20/2017 $7 9 112405933958 eBay david.heffner Auction 40265302
05/12/2017 $8 9 192178959550 eBay monroebuysell Auction 07097025
05/12/2017 $8 9 192178958441 eBay monroebuysell Auction 07097025
05/11/2017 $142 10 142369224432 eBay pwcc_auctions Auction 11142063
05/11/2017 $138 10 352045401473 eBay pwcc_auctions Auction 27116022
05/10/2017 $147 10 382070118362 eBay probstein123 Auction 27266531
05/10/2017 $150 10 201917735293 eBay ubidupay4it Buy It Now 24830687
05/10/2017 $7 9 152538319173 eBay mcb.19822 Auction 81663324
05/10/2017 $150 10 192183275122 eBay oaktowngems Buy It Now 27232384
05/09/2017 $15 9 332204219316 eBay ccloan Auction 05394155
05/08/2017 $5 8 272653191112 eBay bellitja34 Auction 04652910
05/07/2017 $8 9 352044627846 eBay just_collect Auction 27261957
05/07/2017 $150 10 152533796339 eBay store7007 Best Offer 26507060
05/05/2017 $148 10 391769122083 eBay bigboydsportscards3 Auction 06328276
05/04/2017 $112 10 209 Mile High Card Company Extra Innings April/May 2017 Auction 08171748
04/23/2017 $136 10 382045098887 eBay probstein123 Auction 06340110
04/23/2017 $115 10 282432804163 eBay wcsports1 Auction 16111958
04/22/2017 $14 9 322486621680 eBay vamadeo2012 Auction 30010967
04/22/2017 $130 10 352033209143 eBay allcsinc Auction 21103321
04/18/2017 $153 10 401304870476 eBay pwcc_auctions Auction 08156150
04/16/2017 $13 9 272623719441 eBay parkltd Auction 25433555
04/16/2017 $148 10 222471307809 eBay hughg111 Auction 11134148
04/12/2017 $14 9 112360493339 eBay squantoms1 Auction 90100738
04/11/2017 $15 9 262923493041 eBay 76collector Auction 26913348
04/09/2017 $163 10 332172568586 eBay blackforest..abc Auction 81800318
04/08/2017 $173 10 142333771879 eBay usertodd68 Auction 24378473
04/07/2017 $109 10 152492573234 eBay mr.realtyenterprises Auction 06328276
04/06/2017 $175 10 332174887042 eBay k.wes.rad Auction 26755078
03/30/2017 $14 9 262906710503 eBay 76collector Auction 26913348
03/29/2017 $184 10 361936404275 eBay tntnorthnj Auction 25423736
03/25/2017 $6 7 272595856124 eBay redbyrdz Auction 26877369
03/22/2017 $191 10 292059136165 eBay tbmllc Auction 12125091
03/20/2017 $4 8 142312363900 eBay jason.chandler.13 Auction 04372870
03/19/2017 $17 9 252810647876 eBay 76collector Auction 26913349
03/17/2017 $15 9 332151134393 eBay ccloan Auction 21274832
03/06/2017 $9 9 172557216064 eBay diannrazumovsk0 Auction 05110742
03/06/2017 $5 8 252794082960 eBay ncsportscards2015 Auction 03252204
02/26/2017 $3 8 262857832607 eBay haroldleearon Auction 30696827
02/21/2017 $13 9 112300747946 eBay nasa-monkey Auction 25433554
02/15/2017 $120 10 351974939394 eBay pwcc_auctions Auction 20027263
02/13/2017 $104 10 192098044234 eBay plager Auction 26729710
02/03/2017 $9 8 371850538750 eBay thehockspotri Auction 01273990
02/01/2017 $113 10 272532841189 eBay bbbcard13 Auction 20027522
01/25/2017 $15 9 371842620755 eBay probstein123 Auction 81009537
01/25/2017 $12 9 351960687625 eBay myextracards Auction 11929511
01/23/2017 $11 9 152402077059 eBay ahdanielsun Auction 07082616
01/20/2017 $89 10 332091669450 eBay blackforest..abc Auction 26032287
01/05/2017 $10 9 302180886468 eBay preysner1 Auction 30116915
01/05/2017 $8 9 302180883821 eBay preysner1 Auction 07043108
01/03/2017 $10 9 262783817072 eBay benni40 Auction 26329711
01/01/2017 $65 10 252692658719 eBay scarm11 Auction 04104486
12/22/2016 $10 9 361855157430 eBay teri781 Auction 20800299
12/15/2016 $13 9 122259876607 eBay 39mcintyre Auction 26242907
12/13/2016 $7 9 201737715479 eBay 1967cutlassconv Auction 06123916
12/08/2016 $56 10 351919233947 eBay pwcc_auctions Auction 26032287
11/30/2016 $2 7 162293529847 eBay cannon92 Auction 26298279
11/26/2016 $42 10 291947607225 eBay baseball-towne-usa Auction 20233677
11/20/2016 $6 9 142175136283 eBay allproeast Auction 04483194
11/13/2016 $8 9 142169830061 eBay allproeast Auction 02226556
11/13/2016 $41 10 142169735266 eBay pwcc_auctions Auction 81828612
11/10/2016 $8 9 192017526464 eBay rdgrisa Auction 81699649
11/09/2016 $46 10 371779393779 eBay probstein123 Auction 19936992
11/09/2016 $9 9 361807343848 eBay probstein123 Auction 11134147
11/09/2016 $6 9 371778601419 eBay probstein123 Auction 81009551
11/09/2016 $6 9 361807350821 eBay probstein123 Auction 81009540
11/09/2016 $11 9 371778603410 eBay probstein123 Auction 11134142
11/06/2016 $8 9 142162385213 eBay allproeast Auction 30010984
10/30/2016 $9 9 142152125194 eBay allproeast Auction 30079877
10/30/2016 $4 9 282225977988 eBay bgspsa-01 Auction 11193918
10/29/2016 $2 7 172383911072 eBay pwash2013 Auction 26170379
10/28/2016 $45 10 162255119452 eBay jam.maddy2011 Auction 25867403
10/26/2016 $52 10 381820011170 eBay probstein123 Auction 25542957
10/23/2016 $7 9 142144338298 eBay allproeast Auction 30079871
10/19/2016 $10 8 142143755733 eBay ercosali Auction 81440962
10/18/2016 $54 10 401202968202 eBay pwcc_auctions Auction 16111959
10/13/2016 $9 9 381802484622 eBay probstein123 Auction 23445678
10/12/2016 $48 10 222272341269 eBay mrmiamih Auction 20233677
10/11/2016 $11 9 282202498883 eBay redbyrdz Auction 26116264
10/10/2016 $1 8 152265981294 eBay nathbeel Auction 01503053
10/04/2016